Wetterdaten: Freitag, 08.12.2017
Datum Zeit Temp. Aussen Temp. o. S. +5cm Feuchte Auss BlattFeu 1 Luftdruck Regen Sonnenschein Regendauer Solar Windben Empfang
08.12.2017 00:00 5,8 C 5,0 C 3,9 C 96 % 15 lf 1006,7 hPa 0,0 l/m 0 min 0 min 0 W/m 11,3 km/h (2 Bft) 95,65 %
08.12.2017 00:02 5,8 C 5,0 C 3,9 C 96 % 15 lf 1006,8 hPa 0,0 l/m 0 min 0 min 0 W/m 15,8 km/h (3 Bft) 97,30 %
08.12.2017 00:04 5,8 C 5,0 C 3,9 C 97 % 15 lf 1006,6 hPa 0,0 l/m 0 min 0 min 0 W/m 15,8 km/h (3 Bft) 97,87 %
08.12.2017 00:07 5,7 C 5,0 C 4,4 C 97 % 15 lf 1006,8 hPa 0,0 l/m 0 min 0 min 0 W/m 22,5 km/h (4 Bft) 97,44 %
08.12.2017 00:08 5,7 C 5,0 C 4,4 C 97 % 15 lf 1006,8 hPa 0,0 l/m 0 min 0 min 0 W/m 9,0 km/h (2 Bft) 95,65 %
08.12.2017 00:10 5,7 C 5,0 C 4,4 C 96 % 15 lf 1006,8 hPa 0,0 l/m 0 min 0 min 0 W/m 13,5 km/h (3 Bft) 95,74 %
08.12.2017 00:12 5,7 C 5,6 C 4,4 C 97 % 15 lf 1006,8 hPa 0,0 l/m 0 min 0 min 0 W/m 18,0 km/h (3 Bft) 93,62 %
08.12.2017 00:14 5,7 C 5,6 C 4,4 C 97 % 15 lf 1006,7 hPa 0,0 l/m 0 min 0 min 0 W/m 20,3 km/h (4 Bft) 95,74 %
08.12.2017 00:16 5,7 C 5,6 C 4,4 C 97 % 15 lf 1006,6 hPa 0,0 l/m 0 min 0 min 0 W/m 15,8 km/h (3 Bft) 95,74 %
08.12.2017 00:18 5,7 C 5,6 C 4,4 C 97 % 15 lf 1006,6 hPa 0,0 l/m 0 min 0 min 0 W/m 24,8 km/h (4 Bft) 91,30 %
08.12.2017 00:20 5,7 C 5,6 C 4,4 C 97 % 15 lf 1006,6 hPa 0,0 l/m 0 min 0 min 0 W/m 20,3 km/h (4 Bft) 95,74 %
08.12.2017 00:22 5,7 C 5,6 C 4,4 C 97 % 15 lf 1006,7 hPa 0,0 l/m 0 min 0 min 0 W/m 22,5 km/h (4 Bft) 95,74 %
08.12.2017 00:24 5,7 C 5,6 C 4,4 C 97 % 15 lf 1006,8 hPa 0,0 l/m 0 min 0 min 0 W/m 15,8 km/h (3 Bft) 95,74 %
08.12.2017 00:26 5,7 C 5,0 C 3,9 C 97 % 15 lf 1006,7 hPa 0,0 l/m 0 min 0 min 0 W/m 20,3 km/h (4 Bft) 91,49 %
08.12.2017 00:28 5,7 C 5,0 C 3,9 C 96 % 15 lf 1006,7 hPa 0,0 l/m 0 min 0 min 0 W/m 22,5 km/h (4 Bft) 95,65 %
08.12.2017 00:30 5,7 C 5,0 C 3,9 C 96 % 15 lf 1006,6 hPa 0,0 l/m 0 min 0 min 0 W/m 13,5 km/h (3 Bft) 95,74 %
08.12.2017 00:32 5,7 C 5,0 C 3,9 C 96 % 15 lf 1006,6 hPa 0,0 l/m 0 min 0 min 0 W/m 18,0 km/h (3 Bft) 95,74 %
08.12.2017 00:34 5,7 C 5,0 C 3,9 C 96 % 15 lf 1006,7 hPa 0,0 l/m 0 min 0 min 0 W/m 18,0 km/h (3 Bft) 95,74 %
08.12.2017 00:36 5,7 C 5,0 C 3,9 C 96 % 15 lf 1006,7 hPa 0,0 l/m 0 min 0 min 0 W/m 15,8 km/h (3 Bft) 95,74 %
08.12.2017 00:38 5,7 C 5,0 C 3,9 C 96 % 15 lf 1006,7 hPa 0,0 l/m 0 min 0 min 0 W/m 20,3 km/h (4 Bft) 95,74 %
08.12.2017 00:40 5,7 C 5,0 C 3,9 C 96 % 15 lf 1006,7 hPa 0,0 l/m 0 min 0 min 0 W/m 22,5 km/h (4 Bft) 93,48 %
08.12.2017 00:42 5,7 C 5,0 C 3,9 C 96 % 15 lf 1006,8 hPa 0,0 l/m 0 min 0 min 0 W/m 24,8 km/h (4 Bft) 93,62 %
08.12.2017 00:44 5,7 C 5,0 C 3,9 C 96 % 15 lf 1006,7 hPa 0,0 l/m 0 min 0 min 0 W/m 20,3 km/h (4 Bft) 93,62 %
08.12.2017 00:46 5,7 C 5,0 C 3,9 C 96 % 15 lf 1006,7 hPa 0,0 l/m 0 min 0 min 0 W/m 24,8 km/h (4 Bft) 95,74 %
08.12.2017 00:48 5,7 C 5,0 C 3,9 C 96 % 15 lf 1006,7 hPa 0,0 l/m 0 min 0 min 0 W/m 29,3 km/h (5 Bft) 93,62 %
08.12.2017 00:50 5,7 C 5,0 C 3,9 C 96 % 15 lf 1006,7 hPa 0,0 l/m 0 min 0 min 0 W/m 22,5 km/h (4 Bft) 93,62 %
08.12.2017 00:52 5,6 C 5,0 C 3,9 C 96 % 15 lf 1006,6 hPa 0,0 l/m 0 min 0 min 0 W/m 22,5 km/h (4 Bft) 93,48 %
08.12.2017 00:54 5,6 C 5,0 C 3,9 C 96 % 15 lf 1006,6 hPa 0,0 l/m 0 min 0 min 0 W/m 24,8 km/h (4 Bft) 95,74 %
08.12.2017 00:56 5,6 C 5,0 C 3,9 C 96 % 15 lf 1006,6 hPa 0,0 l/m 0 min 2 min 0 W/m 24,8 km/h (4 Bft) 93,62 %
08.12.2017 00:58 5,6 C 5,0 C 3,9 C 96 % 15 lf 1006,8 hPa 0,0 l/m 0 min 0 min 0 W/m 20,3 km/h (4 Bft) 95,74 %
08.12.2017 01:00 5,6 C 5,0 C 3,9 C 96 % 15 lf 1006,8 hPa 0,0 l/m 0 min 2 min 0 W/m 27,0 km/h (4 Bft) 95,74 %
08.12.2017 01:02 5,6 C 5,0 C 3,9 C 96 % 15 lf 1006,7 hPa 0,0 l/m 0 min 0 min 0 W/m 20,3 km/h (4 Bft) 100,00 %
08.12.2017 01:04 5,6 C 5,0 C 3,9 C 96 % 15 lf 1006,8 hPa 0,0 l/m 0 min 0 min 0 W/m 15,8 km/h (3 Bft) 100,00 %
08.12.2017 01:06 5,6 C 5,0 C 3,9 C 96 % 15 lf 1006,7 hPa 0,0 l/m 0 min 0 min 0 W/m 24,8 km/h (4 Bft) 95,74 %
08.12.2017 01:10 5,6 C 5,0 C 3,9 C 96 % 15 lf 1006,7 hPa 0,0 l/m 0 min 0 min 0 W/m 27,0 km/h (4 Bft) 97,67 %
08.12.2017 01:12 5,6 C 5,0 C 3,9 C 96 % 15 lf 1006,6 hPa 0,0 l/m 0 min 0 min 0 W/m 22,5 km/h (4 Bft) 95,74 %
08.12.2017 01:14 5,6 C 5,0 C 3,9 C 96 % 15 lf 1006,7 hPa 0,0 l/m 0 min 0 min 0 W/m 24,8 km/h (4 Bft) 100,00 %
08.12.2017 01:16 5,6 C 5,0 C 3,9 C 96 % 15 lf 1006,8 hPa 0,0 l/m 0 min 0 min 0 W/m 22,5 km/h (4 Bft) 100,00 %
08.12.2017 01:18 5,6 C 5,0 C 3,9 C 96 % 15 lf 1006,9 hPa 0,0 l/m 0 min 0 min 0 W/m 27,0 km/h (4 Bft) 97,83 %
08.12.2017 01:20 5,5 C 5,0 C 3,9 C 96 % 15 lf 1006,8 hPa 0,0 l/m 0 min 0 min 0 W/m 33,8 km/h (5 Bft) 100,00 %
08.12.2017 01:22 5,5 C 5,0 C 3,9 C 96 % 15 lf 1006,8 hPa 0,0 l/m 0 min 0 min 0 W/m 29,3 km/h (5 Bft) 100,00 %
08.12.2017 01:24 5,5 C 5,0 C 3,9 C 96 % 15 lf 1006,7 hPa 0,0 l/m 0 min 0 min 0 W/m 27,0 km/h (4 Bft) 100,00 %
08.12.2017 01:26 5,5 C 5,0 C 3,9 C 96 % 15 lf 1006,9 hPa 0,0 l/m 0 min 0 min 0 W/m 18,0 km/h (3 Bft) 97,87 %
08.12.2017 01:28 5,5 C 5,0 C 3,9 C 96 % 15 lf 1006,9 hPa 0,0 l/m 0 min 0 min 0 W/m 18,0 km/h (3 Bft) 100,00 %
08.12.2017 01:30 5,4 C 5,0 C 3,9 C 96 % 15 lf 1006,9 hPa 0,0 l/m 0 min 0 min 0 W/m 20,3 km/h (4 Bft) 97,87 %
08.12.2017 01:32 5,4 C 5,0 C 3,9 C 96 % 15 lf 1006,9 hPa 0,0 l/m 0 min 0 min 0 W/m 22,5 km/h (4 Bft) 95,74 %
08.12.2017 01:34 5,4 C 5,0 C 3,9 C 96 % 15 lf 1006,8 hPa 0,0 l/m 0 min 0 min 0 W/m 18,0 km/h (3 Bft) 97,83 %
08.12.2017 01:36 5,4 C 5,0 C 3,9 C 96 % 15 lf 1006,9 hPa 0,0 l/m 0 min 0 min 0 W/m 20,3 km/h (4 Bft) 97,87 %
08.12.2017 01:38 5,4 C 5,0 C 3,9 C 96 % 15 lf 1006,8 hPa 0,0 l/m 0 min 0 min 0 W/m 24,8 km/h (4 Bft) 95,74 %
08.12.2017 01:40 5,4 C 5,0 C 3,9 C 96 % 15 lf 1006,8 hPa 0,0 l/m 0 min 0 min 0 W/m 20,3 km/h (4 Bft) 95,74 %
08.12.2017 01:42 5,4 C 5,0 C 3,9 C 96 % 15 lf 1006,8 hPa 0,0 l/m 0 min 0 min 0 W/m 22,5 km/h (4 Bft) 93,62 %
08.12.2017 01:44 5,4 C 5,0 C 3,9 C 96 % 15 lf 1006,8 hPa 0,0 l/m 0 min 0 min 0 W/m 24,8 km/h (4 Bft) 93,62 %
08.12.2017 01:46 5,4 C 5,0 C 3,3 C 96 % 15 lf 1006,8 hPa 0,0 l/m 0 min 0 min 0 W/m 24,8 km/h (4 Bft) 95,65 %
08.12.2017 01:48 5,4 C 5,0 C 3,9 C 96 % 15 lf 1006,8 hPa 0,0 l/m 0 min 0 min 0 W/m 22,5 km/h (4 Bft) 95,74 %
08.12.2017 01:50 5,4 C 5,0 C 3,3 C 96 % 15 lf 1006,9 hPa 0,0 l/m 0 min 0 min 0 W/m 20,3 km/h (4 Bft) 95,74 %
08.12.2017 01:52 5,4 C 5,0 C 3,3 C 96 % 15 lf 1006,9 hPa 0,0 l/m 0 min 0 min 0 W/m 22,5 km/h (4 Bft) 97,87 %
08.12.2017 01:54 5,4 C 5,0 C 3,3 C 96 % 15 lf 1006,9 hPa 0,0 l/m 0 min 0 min 0 W/m 22,5 km/h (4 Bft) 95,74 %
08.12.2017 01:56 5,3 C 4,4 C 3,3 C 96 % 15 lf 1006,9 hPa 0,0 l/m 0 min 0 min 0 W/m 20,3 km/h (4 Bft) 95,74 %
08.12.2017 01:58 5,3 C 4,4 C 3,3 C 96 % 15 lf 1006,9 hPa 0,0 l/m 0 min 0 min 0 W/m 20,3 km/h (4 Bft) 95,65 %
08.12.2017 02:00 5,3 C 4,4 C 3,3 C 96 % 15 lf 1006,9 hPa 0,0 l/m 0 min 0 min 0 W/m 29,3 km/h (5 Bft) 93,62 %
08.12.2017 02:02 5,3 C 4,4 C 3,3 C 96 % 15 lf 1006,9 hPa 0,0 l/m 0 min 0 min 0 W/m 20,3 km/h (4 Bft) 95,74 %
08.12.2017 02:04 5,3 C 4,4 C 3,3 C 96 % 15 lf 1006,9 hPa 0,0 l/m 0 min 0 min 0 W/m 22,5 km/h (4 Bft) 89,36 %
08.12.2017 02:06 5,3 C 4,4 C 3,3 C 96 % 15 lf 1006,9 hPa 0,0 l/m 0 min 0 min 0 W/m 15,8 km/h (3 Bft) 95,74 %
08.12.2017 02:10 5,2 C 4,4 C 3,3 C 96 % 15 lf 1006,9 hPa 0,0 l/m 0 min 0 min 0 W/m 31,5 km/h (5 Bft) 96,77 %
08.12.2017 02:12 5,2 C 4,4 C 3,3 C 96 % 15 lf 1006,9 hPa 0,0 l/m 0 min 0 min 0 W/m 18,0 km/h (3 Bft) 97,87 %
08.12.2017 02:14 5,2 C 4,4 C 3,3 C 96 % 15 lf 1007,0 hPa 0,0 l/m 0 min 0 min 0 W/m 15,8 km/h (3 Bft) 95,74 %
08.12.2017 02:16 5,2 C 4,4 C 2,8 C 96 % 15 lf 1007,0 hPa 0,0 l/m 0 min 0 min 0 W/m 15,8 km/h (3 Bft) 95,74 %
08.12.2017 02:18 5,1 C 4,4 C 3,3 C 96 % 15 lf 1007,0 hPa 0,0 l/m 0 min 0 min 0 W/m 20,3 km/h (4 Bft) 97,87 %
08.12.2017 02:20 5,1 C 4,4 C 3,3 C 96 % 14 lf 1007,0 hPa 0,0 l/m 0 min 0 min 0 W/m 15,8 km/h (3 Bft) 95,65 %
08.12.2017 02:22 5,1 C 4,4 C 3,3 C 96 % 14 lf 1007,0 hPa 0,0 l/m 0 min 0 min 0 W/m 20,3 km/h (4 Bft) 97,87 %
08.12.2017 02:24 5,1 C 4,4 C 3,3 C 96 % 14 lf 1007,0 hPa 0,0 l/m 0 min 0 min 0 W/m 18,0 km/h (3 Bft) 97,87 %
08.12.2017 02:26 5,1 C 4,4 C 3,3 C 96 % 13 lf 1007,0 hPa 0,0 l/m 0 min 0 min 0 W/m 15,8 km/h (3 Bft) 95,74 %
08.12.2017 02:28 5,1 C 4,4 C 3,3 C 96 % 14 lf 1007,0 hPa 0,0 l/m 0 min 0 min 0 W/m 18,0 km/h (3 Bft) 97,87 %
08.12.2017 02:30 5,1 C 4,4 C 3,3 C 96 % 14 lf 1007,0 hPa 0,0 l/m 0 min 0 min 0 W/m 15,8 km/h (3 Bft) 95,74 %
08.12.2017 02:32 5,0 C 4,4 C 2,8 C 96 % 13 lf 1007,0 hPa 0,0 l/m 0 min 0 min 0 W/m 18,0 km/h (3 Bft) 97,83 %
08.12.2017 02:34 5,0 C 4,4 C 2,8 C 96 % 13 lf 1007,0 hPa 0,0 l/m 0 min 0 min 0 W/m 22,5 km/h (4 Bft) 93,62 %
08.12.2017 02:36 4,9 C 4,4 C 2,8 C 96 % 13 lf 1007,0 hPa 0,0 l/m 0 min 0 min 0 W/m 18,0 km/h (3 Bft) 97,87 %
08.12.2017 02:38 4,9 C 3,9 C 2,8 C 96 % 13 lf 1007,0 hPa 0,0 l/m 0 min 0 min 0 W/m 20,3 km/h (4 Bft) 95,74 %
08.12.2017 02:40 4,9 C 3,9 C 2,8 C 96 % 13 lf 1007,1 hPa 0,0 l/m 0 min 0 min 0 W/m 18,0 km/h (3 Bft) 100,00 %
08.12.2017 02:42 4,9 C 3,9 C 2,8 C 96 % 12 lf 1007,1 hPa 0,0 l/m 0 min 0 min 0 W/m 15,8 km/h (3 Bft) 100,00 %
08.12.2017 02:44 4,8 C 3,9 C 2,8 C 96 % 12 lf 1007,2 hPa 0,0 l/m 0 min 0 min 0 W/m 20,3 km/h (4 Bft) 97,83 %
08.12.2017 02:46 4,8 C 3,9 C 2,8 C 96 % 12 lf 1007,2 hPa 0,0 l/m 0 min 0 min 0 W/m 18,0 km/h (3 Bft) 100,00 %
08.12.2017 02:48 4,8 C 3,9 C 2,8 C 95 % 12 lf 1007,2 hPa 0,0 l/m 0 min 0 min 0 W/m 22,5 km/h (4 Bft) 100,00 %
08.12.2017 02:50 4,7 C 3,9 C 2,8 C 95 % 11 lf 1007,1 hPa 0,0 l/m 0 min 0 min 0 W/m 22,5 km/h (4 Bft) 97,87 %
08.12.2017 02:52 4,7 C 3,9 C 2,8 C 95 % 10 lf 1007,1 hPa 0,0 l/m 0 min 0 min 0 W/m 20,3 km/h (4 Bft) 97,87 %
08.12.2017 02:54 4,7 C 3,9 C 2,8 C 95 % 10 lf 1007,1 hPa 0,0 l/m 0 min 0 min 0 W/m 24,8 km/h (4 Bft) 95,74 %
08.12.2017 02:56 4,7 C 3,9 C 2,8 C 95 % 9 lf 1007,1 hPa 0,0 l/m 0 min 0 min 0 W/m 20,3 km/h (4 Bft) 95,65 %
08.12.2017 02:58 4,7 C 3,9 C 2,8 C 95 % 7 lf 1007,2 hPa 0,0 l/m 0 min 0 min 0 W/m 22,5 km/h (4 Bft) 97,87 %
08.12.2017 03:00 4,7 C 3,9 C 2,8 C 95 % 7 lf 1007,3 hPa 0,0 l/m 0 min 0 min 0 W/m 29,3 km/h (5 Bft) 95,74 %
08.12.2017 03:02 4,6 C 3,9 C 2,8 C 95 % 6 lf 1007,3 hPa 0,0 l/m 0 min 0 min 0 W/m 24,8 km/h (4 Bft) 93,62 %
08.12.2017 03:04 4,6 C 3,9 C 2,8 C 95 % 4 lf 1007,3 hPa 0,0 l/m 0 min 0 min 0 W/m 27,0 km/h (4 Bft) 95,74 %
08.12.2017 03:06 4,6 C 3,9 C 2,8 C 95 % 4 lf 1007,3 hPa 0,0 l/m 0 min 0 min 0 W/m 24,8 km/h (4 Bft) 93,48 %
08.12.2017 03:10 4,6 C 3,9 C 2,8 C 95 % 3 lf 1007,3 hPa 0,0 l/m 0 min 0 min 0 W/m 24,8 km/h (4 Bft) 97,09 %
08.12.2017 03:12 4,6 C 3,9 C 2,2 C 95 % 3 lf 1007,3 hPa 0,0 l/m 0 min 0 min 0 W/m 20,3 km/h (4 Bft) 95,65 %
08.12.2017 03:14 4,5 C 3,9 C 2,2 C 95 % 3 lf 1007,4 hPa 0,0 l/m 0 min 0 min 0 W/m 20,3 km/h (4 Bft) 95,74 %
08.12.2017 03:16 4,5 C 3,9 C 2,2 C 95 % 3 lf 1007,3 hPa 0,0 l/m 0 min 0 min 0 W/m 18,0 km/h (3 Bft) 95,74 %
08.12.2017 03:18 4,5 C 3,9 C 2,8 C 95 % 2 lf 1007,4 hPa 0,0 l/m 0 min 0 min 0 W/m 22,5 km/h (4 Bft) 91,49 %
08.12.2017 03:20 4,5 C 3,9 C 2,8 C 95 % 2 lf 1007,4 hPa 0,0 l/m 0 min 0 min 0 W/m 22,5 km/h (4 Bft) 93,62 %
08.12.2017 03:22 4,5 C 3,9 C 2,8 C 95 % 1 lf 1007,4 hPa 0,0 l/m 0 min 0 min 0 W/m 22,5 km/h (4 Bft) 93,62 %
08.12.2017 03:24 4,5 C 3,9 C 2,8 C 95 % 0 lf 1007,4 hPa 0,0 l/m 0 min 0 min 0 W/m 24,8 km/h (4 Bft) 93,48 %
08.12.2017 03:26 4,5 C 3,9 C 2,8 C 95 % 0 lf 1007,4 hPa 0,0 l/m 0 min 0 min 0 W/m 18,0 km/h (3 Bft) 93,62 %
08.12.2017 03:28 4,5 C 3,9 C 2,8 C 95 % 0 lf 1007,4 hPa 0,0 l/m 0 min 0 min 0 W/m 29,3 km/h (5 Bft) 93,62 %
08.12.2017 03:30 4,5 C 3,9 C 2,8 C 95 % 0 lf 1007,4 hPa 0,0 l/m 0 min 0 min 0 W/m 27,0 km/h (4 Bft) 91,49 %
08.12.2017 03:32 4,5 C 3,9 C 2,8 C 95 % 0 lf 1007,4 hPa 0,0 l/m 0 min 0 min 0 W/m 20,3 km/h (4 Bft) 95,74 %
08.12.2017 03:34 4,5 C 3,9 C 2,8 C 95 % 3 lf 1007,4 hPa 0,0 l/m 0 min 2 min 0 W/m 27,0 km/h (4 Bft) 93,48 %
08.12.2017 03:36 4,6 C 3,9 C 2,8 C 95 % 2 lf 1007,4 hPa 0,0 l/m 0 min 2 min 0 W/m 29,3 km/h (5 Bft) 93,62 %
08.12.2017 03:38 4,6 C 3,9 C 2,8 C 95 % 1 lf 1007,4 hPa 0,0 l/m 0 min 0 min 0 W/m 36,0 km/h (5 Bft) 89,36 %
08.12.2017 03:40 4,6 C 3,9 C 3,3 C 95 % 13 lf 1007,4 hPa 0,0 l/m 0 min 2 min 0 W/m 58,6 km/h (7 Bft) 93,62 %
08.12.2017 03:42 4,6 C 3,9 C 2,8 C 95 % 14 lf 1007,5 hPa 0,0 l/m 0 min 2 min 0 W/m 49,6 km/h (6 Bft) 95,74 %
08.12.2017 03:44 4,6 C 3,9 C 2,8 C 95 % 13 lf 1007,5 hPa 0,0 l/m 0 min 2 min 0 W/m 47,3 km/h (6 Bft) 93,62 %
08.12.2017 03:46 4,5 C 3,9 C 2,8 C 95 % 15 lf 1007,5 hPa 0,0 l/m 0 min 2 min 0 W/m 38,3 km/h (5 Bft) 93,48 %
08.12.2017 03:48 4,5 C 3,9 C 2,8 C 94 % 15 lf 1007,6 hPa 0,0 l/m 0 min 2 min 0 W/m 31,5 km/h (5 Bft) 95,74 %
08.12.2017 03:50 4,4 C 3,9 C 2,8 C 94 % 15 lf 1007,5 hPa 0,0 l/m 0 min 2 min 0 W/m 38,3 km/h (5 Bft) 95,74 %
08.12.2017 03:52 4,4 C 3,9 C 2,8 C 94 % 15 lf 1007,4 hPa 0,0 l/m 0 min 0 min 0 W/m 38,3 km/h (5 Bft) 97,87 %
08.12.2017 03:54 4,4 C 3,3 C 2,2 C 94 % 15 lf 1007,4 hPa 0,0 l/m 0 min 0 min 0 W/m 38,3 km/h (5 Bft) 91,49 %
08.12.2017 03:56 4,4 C 3,3 C 2,2 C 94 % 15 lf 1007,4 hPa 0,0 l/m 0 min 0 min 0 W/m 29,3 km/h (5 Bft) 95,74 %
08.12.2017 03:58 4,3 C 3,3 C 2,2 C 94 % 15 lf 1007,4 hPa 0,0 l/m 0 min 0 min 0 W/m 36,0 km/h (5 Bft) 97,83 %
08.12.2017 04:00 4,3 C 3,3 C 2,2 C 94 % 15 lf 1007,4 hPa 0,0 l/m 0 min 0 min 0 W/m 27,0 km/h (4 Bft) 93,62 %
08.12.2017 04:05 4,3 C 3,3 C 2,2 C 94 % 14 lf 1007,5 hPa 0,0 l/m 0 min 0 min 0 W/m 22,5 km/h (4 Bft) 94,74 %
08.12.2017 04:06 4,3 C 3,3 C 2,2 C 94 % 14 lf 1007,5 hPa 0,0 l/m 0 min 0 min 0 W/m 24,8 km/h (4 Bft) 100,00 %
08.12.2017 04:10 4,2 C 3,3 C 2,2 C 93 % 13 lf 1007,3 hPa 0,2 l/m 0 min 0 min 0 W/m 31,5 km/h (5 Bft) 100,00 %
08.12.2017 04:12 4,2 C 3,3 C 2,2 C 93 % 12 lf 1007,3 hPa 0,0 l/m 0 min 0 min 0 W/m 29,3 km/h (5 Bft) 100,00 %
08.12.2017 04:14 4,2 C 3,3 C 2,2 C 93 % 12 lf 1007,3 hPa 0,0 l/m 0 min 0 min 0 W/m 22,5 km/h (4 Bft) 100,00 %
08.12.2017 04:16 4,2 C 3,3 C 2,2 C 93 % 11 lf 1007,3 hPa 0,0 l/m 0 min 0 min 0 W/m 20,3 km/h (4 Bft) 95,74 %
08.12.2017 04:18 4,2 C 3,3 C 2,2 C 93 % 10 lf 1007,3 hPa 0,0 l/m 0 min 0 min 0 W/m 24,8 km/h (4 Bft) 100,00 %
08.12.2017 04:20 4,2 C 3,3 C 2,2 C 93 % 9 lf 1007,4 hPa 0,0 l/m 0 min 0 min 0 W/m 20,3 km/h (4 Bft) 98,28 %
08.12.2017 04:22 4,2 C 3,3 C 2,2 C 93 % 8 lf 1007,4 hPa 0,0 l/m 0 min 0 min 0 W/m 22,5 km/h (4 Bft) 100,00 %
08.12.2017 04:24 4,2 C 3,3 C 2,2 C 93 % 7 lf 1007,4 hPa 0,0 l/m 0 min 0 min 0 W/m 27,0 km/h (4 Bft) 100,00 %
08.12.2017 04:26 4,2 C 3,3 C 2,2 C 93 % 5 lf 1007,4 hPa 0,0 l/m 0 min 0 min 0 W/m 27,0 km/h (4 Bft) 100,00 %
08.12.2017 04:28 4,2 C 3,3 C 2,2 C 93 % 4 lf 1007,4 hPa 0,0 l/m 0 min 0 min 0 W/m 29,3 km/h (5 Bft) 97,87 %
08.12.2017 04:30 4,2 C 3,9 C 2,2 C 93 % 3 lf 1007,3 hPa 0,0 l/m 0 min 0 min 0 W/m 29,3 km/h (5 Bft) 95,74 %
08.12.2017 04:32 4,2 C 3,9 C 2,8 C 93 % 3 lf 1007,4 hPa 0,0 l/m 0 min 0 min 0 W/m 27,0 km/h (4 Bft) 100,00 %
08.12.2017 04:34 4,2 C 3,9 C 2,8 C 93 % 2 lf 1007,4 hPa 0,0 l/m 0 min 0 min 0 W/m 33,8 km/h (5 Bft) 97,87 %
08.12.2017 04:36 4,2 C 3,9 C 2,8 C 93 % 3 lf 1007,4 hPa 0,0 l/m 0 min 2 min 0 W/m 29,3 km/h (5 Bft) 97,83 %
08.12.2017 04:38 4,2 C 3,9 C 2,8 C 93 % 15 lf 1007,3 hPa 0,0 l/m 0 min 2 min 0 W/m 24,8 km/h (4 Bft) 100,00 %
08.12.2017 04:40 4,2 C 3,9 C 2,8 C 93 % 15 lf 1007,3 hPa 0,0 l/m 0 min 0 min 0 W/m 33,8 km/h (5 Bft) 97,87 %
08.12.2017 04:42 4,2 C 3,9 C 2,2 C 93 % 15 lf 1007,4 hPa 0,0 l/m 0 min 2 min 0 W/m 38,3 km/h (5 Bft) 100,00 %
08.12.2017 04:44 4,2 C 3,9 C 2,2 C 93 % 15 lf 1007,3 hPa 0,0 l/m 0 min 2 min 0 W/m 40,6 km/h (6 Bft) 100,00 %
08.12.2017 04:46 4,2 C 3,3 C 2,2 C 93 % 15 lf 1007,4 hPa 0,0 l/m 0 min 2 min 0 W/m 33,8 km/h (5 Bft) 97,87 %
08.12.2017 04:48 4,2 C 3,3 C 2,2 C 93 % 15 lf 1007,4 hPa 0,0 l/m 0 min 0 min 0 W/m 29,3 km/h (5 Bft) 100,00 %
08.12.2017 04:50 4,2 C 3,3 C 2,2 C 93 % 14 lf 1007,4 hPa 0,0 l/m 0 min 2 min 0 W/m 24,8 km/h (4 Bft) 100,00 %
08.12.2017 04:52 4,2 C 3,3 C 2,2 C 93 % 14 lf 1007,4 hPa 0,0 l/m 0 min 2 min 0 W/m 29,3 km/h (5 Bft) 100,00 %
08.12.2017 04:54 4,1 C 3,3 C 2,2 C 93 % 14 lf 1007,4 hPa 0,0 l/m 0 min 0 min 0 W/m 27,0 km/h (4 Bft) 100,00 %
08.12.2017 04:56 4,1 C 3,3 C 2,2 C 93 % 13 lf 1007,4 hPa 0,0 l/m 0 min 0 min 0 W/m 29,3 km/h (5 Bft) 100,00 %
08.12.2017 04:58 4,1 C 3,3 C 2,2 C 93 % 13 lf 1007,4 hPa 0,0 l/m 0 min 0 min 0 W/m 20,3 km/h (4 Bft) 97,83 %
08.12.2017 05:00 4,1 C 3,3 C 2,2 C 93 % 12 lf 1007,5 hPa 0,0 l/m 0 min 0 min 0 W/m 22,5 km/h (4 Bft) 100,00 %
08.12.2017 05:02 4,1 C 3,3 C 2,2 C 93 % 12 lf 1007,5 hPa 0,0 l/m 0 min 2 min 0 W/m 22,5 km/h (4 Bft) 97,87 %
08.12.2017 05:04 4,0 C 3,9 C 2,2 C 93 % 11 lf 1007,5 hPa 0,0 l/m 0 min 2 min 0 W/m 27,0 km/h (4 Bft) 100,00 %
08.12.2017 05:06 4,0 C 3,9 C 2,2 C 93 % 11 lf 1007,5 hPa 0,0 l/m 0 min 2 min 0 W/m 36,0 km/h (5 Bft) 93,62 %
08.12.2017 05:10 4,0 C 3,9 C 2,2 C 94 % 9 lf 1007,4 hPa 0,0 l/m 0 min 0 min 0 W/m 31,5 km/h (5 Bft) 100,00 %
08.12.2017 05:12 4,0 C 3,9 C 2,2 C 94 % 7 lf 1007,4 hPa 0,0 l/m 0 min 0 min 0 W/m 36,0 km/h (5 Bft) 100,00 %
08.12.2017 05:14 4,0 C 3,9 C 2,2 C 94 % 6 lf 1007,5 hPa 0,0 l/m 0 min 0 min 0 W/m 27,0 km/h (4 Bft) 97,87 %
08.12.2017 05:16 3,9 C 3,3 C 1,7 C 94 % 5 lf 1007,5 hPa 0,0 l/m 0 min 0 min 0 W/m 20,3 km/h (4 Bft) 97,87 %
08.12.2017 05:18 3,9 C 3,3 C 1,7 C 94 % 4 lf 1007,5 hPa 0,0 l/m 0 min 0 min 0 W/m 33,8 km/h (5 Bft) 97,87 %
08.12.2017 05:20 3,9 C 3,3 C 1,7 C 94 % 3 lf 1007,4 hPa 0,0 l/m 0 min 2 min 0 W/m 27,0 km/h (4 Bft) 97,87 %
08.12.2017 05:22 3,9 C 3,3 C 1,7 C 94 % 3 lf 1007,4 hPa 0,0 l/m 0 min 2 min 0 W/m 31,5 km/h (5 Bft) 97,83 %
08.12.2017 05:24 3,9 C 3,3 C 1,7 C 94 % 2 lf 1007,4 hPa 0,0 l/m 0 min 0 min 0 W/m 36,0 km/h (5 Bft) 95,74 %
08.12.2017 05:26 3,9 C 3,3 C 1,7 C 93 % 1 lf 1007,5 hPa 0,0 l/m 0 min 0 min 0 W/m 33,8 km/h (5 Bft) 97,87 %
08.12.2017 05:28 3,8 C 3,3 C 1,7 C 93 % 1 lf 1007,4 hPa 0,0 l/m 0 min 0 min 0 W/m 36,0 km/h (5 Bft) 95,74 %
08.12.2017 05:30 3,8 C 3,3 C 1,7 C 93 % 1 lf 1007,4 hPa 0,0 l/m 0 min 2 min 0 W/m 27,0 km/h (4 Bft) 93,62 %
08.12.2017 05:32 3,8 C 3,3 C 1,7 C 93 % 0 lf 1007,4 hPa 0,0 l/m 0 min 2 min 0 W/m 36,0 km/h (5 Bft) 95,74 %
08.12.2017 05:34 3,8 C 3,3 C 1,7 C 93 % 0 lf 1007,4 hPa 0,0 l/m 0 min 0 min 0 W/m 22,5 km/h (4 Bft) 93,48 %
08.12.2017 05:35 3,7 C 3,3 C 1,7 C 93 % 0 lf 1007,4 hPa 0,0 l/m 0 min 0 min 0 W/m 36,0 km/h (5 Bft) 95,61 %
08.12.2017 05:42 3,6 C 3,3 C 1,7 C 93 % 0 lf 1007,5 hPa 0,0 l/m 0 min 0 min 0 W/m 24,8 km/h (4 Bft) 97,14 %
08.12.2017 05:44 3,6 C 3,3 C 1,7 C 93 % 0 lf 1007,5 hPa 0,0 l/m 0 min 0 min 0 W/m 24,8 km/h (4 Bft) 97,14 %
08.12.2017 05:46 3,6 C 3,3 C 1,7 C 93 % 0 lf 1007,5 hPa 0,0 l/m 0 min 0 min 0 W/m 27,0 km/h (4 Bft) 100,00 %
08.12.2017 05:48 3,6 C 3,3 C 1,7 C 93 % 0 lf 1007,5 hPa 0,0 l/m 0 min 0 min 0 W/m 24,8 km/h (4 Bft) 97,83 %
08.12.2017 05:50 3,5 C 3,3 C 1,7 C 92 % 0 lf 1007,5 hPa 0,0 l/m 0 min 0 min 0 W/m 22,5 km/h (4 Bft) 95,74 %
08.12.2017 05:52 3,5 C 3,3 C 1,7 C 92 % 0 lf 1007,5 hPa 0,0 l/m 0 min 0 min 0 W/m 20,3 km/h (4 Bft) 91,49 %
08.12.2017 05:54 3,4 C 3,3 C 1,7 C 92 % 0 lf 1007,3 hPa 0,0 l/m 0 min 0 min 0 W/m 24,8 km/h (4 Bft) 94,29 %
08.12.2017 05:56 3,4 C 2,8 C 1,7 C 92 % 0 lf 1007,3 hPa 0,0 l/m 0 min 0 min 0 W/m 27,0 km/h (4 Bft) 95,74 %
08.12.2017 05:58 3,4 C 2,8 C 1,7 C 92 % 0 lf 1007,5 hPa 0,0 l/m 0 min 0 min 0 W/m 24,8 km/h (4 Bft) 96,61 %
08.12.2017 06:00 3,4 C 2,8 C 1,7 C 92 % 0 lf 1007,4 hPa 0,0 l/m 0 min 0 min 0 W/m 20,3 km/h (4 Bft) 95,65 %
08.12.2017 06:02 3,4 C 2,8 C 1,7 C 92 % 0 lf 1007,5 hPa 0,0 l/m 0 min 0 min 0 W/m 22,5 km/h (4 Bft) 93,62 %
08.12.2017 06:04 3,4 C 2,8 C 1,7 C 92 % 0 lf 1007,5 hPa 0,0 l/m 0 min 0 min 0 W/m 20,3 km/h (4 Bft) 97,14 %
08.12.2017 06:06 3,3 C 2,8 C 1,1 C 92 % 0 lf 1007,4 hPa 0,0 l/m 0 min 0 min 0 W/m 24,8 km/h (4 Bft) 91,49 %
08.12.2017 06:10 3,3 C 2,8 C 1,1 C 92 % 0 lf 1007,4 hPa 0,0 l/m 0 min 0 min 0 W/m 27,0 km/h (4 Bft) 94,68 %
08.12.2017 06:12 3,3 C 2,8 C 1,1 C 92 % 0 lf 1007,4 hPa 0,0 l/m 0 min 0 min 0 W/m 24,8 km/h (4 Bft) 93,62 %
08.12.2017 06:14 3,2 C 2,8 C 1,7 C 92 % 0 lf 1007,4 hPa 0,0 l/m 0 min 0 min 0 W/m 31,5 km/h (5 Bft) 93,48 %
08.12.2017 06:16 3,2 C 2,8 C 1,1 C 92 % 0 lf 1007,4 hPa 0,0 l/m 0 min 0 min 0 W/m 27,0 km/h (4 Bft) 95,74 %
08.12.2017 06:18 3,2 C 2,8 C 1,1 C 92 % 0 lf 1007,4 hPa 0,0 l/m 0 min 0 min 0 W/m 27,0 km/h (4 Bft) 93,62 %
08.12.2017 06:20 3,2 C 2,8 C 1,1 C 92 % 0 lf 1007,5 hPa 0,0 l/m 0 min 0 min 0 W/m 27,0 km/h (4 Bft) 95,74 %
08.12.2017 06:22 3,2 C 2,8 C 1,1 C 92 % 0 lf 1007,5 hPa 0,0 l/m 0 min 0 min 0 W/m 33,8 km/h (5 Bft) 95,74 %
08.12.2017 06:24 3,2 C 2,8 C 1,1 C 92 % 0 lf 1007,4 hPa 0,0 l/m 0 min 0 min 0 W/m 27,0 km/h (4 Bft) 97,87 %
08.12.2017 06:26 3,1 C 2,8 C 1,1 C 92 % 0 lf 1007,4 hPa 0,0 l/m 0 min 0 min 0 W/m 22,5 km/h (4 Bft) 93,48 %
08.12.2017 06:28 3,1 C 2,8 C 1,1 C 92 % 0 lf 1007,3 hPa 0,0 l/m 0 min 0 min 0 W/m 27,0 km/h (4 Bft) 91,49 %
08.12.2017 06:30 3,1 C 2,8 C 1,1 C 92 % 0 lf 1007,4 hPa 0,0 l/m 0 min 0 min 0 W/m 27,0 km/h (4 Bft) 95,74 %
08.12.2017 06:32 3,1 C 2,8 C 1,1 C 92 % 0 lf 1007,3 hPa 0,0 l/m 0 min 0 min 0 W/m 31,5 km/h (5 Bft) 95,74 %
08.12.2017 06:34 3,1 C 2,8 C 1,1 C 92 % 0 lf 1007,3 hPa 0,0 l/m 0 min 0 min 0 W/m 22,5 km/h (4 Bft) 95,74 %
08.12.2017 06:36 3,0 C 2,8 C 1,1 C 92 % 0 lf 1007,3 hPa 0,0 l/m 0 min 0 min 0 W/m 33,8 km/h (5 Bft) 93,62 %
08.12.2017 06:38 3,0 C 2,8 C 1,1 C 92 % 0 lf 1007,3 hPa 0,0 l/m 0 min 0 min 0 W/m 24,8 km/h (4 Bft) 95,65 %
08.12.2017 06:40 3,0 C 2,8 C 1,1 C 92 % 0 lf 1007,3 hPa 0,0 l/m 0 min 0 min 0 W/m 24,8 km/h (4 Bft) 93,62 %
08.12.2017 06:42 2,9 C 2,8 C 1,1 C 92 % 0 lf 1007,3 hPa 0,0 l/m 0 min 0 min 0 W/m 31,5 km/h (5 Bft) 95,74 %
08.12.2017 06:44 2,9 C 2,8 C 1,1 C 92 % 0 lf 1007,3 hPa 0,0 l/m 0 min 0 min 0 W/m 24,8 km/h (4 Bft) 93,62 %
08.12.2017 06:46 2,9 C 2,8 C 1,1 C 92 % 0 lf 1007,3 hPa 0,0 l/m 0 min 0 min 0 W/m 24,8 km/h (4 Bft) 93,62 %
08.12.2017 06:48 2,9 C 2,8 C 1,1 C 92 % 0 lf 1007,4 hPa 0,0 l/m 0 min 0 min 0 W/m 24,8 km/h (4 Bft) 93,62 %
08.12.2017 06:50 2,9 C 2,8 C 1,1 C 92 % 0 lf 1007,3 hPa 0,0 l/m 0 min 0 min 0 W/m 24,8 km/h (4 Bft) 95,65 %
08.12.2017 06:52 2,9 C 2,2 C 1,1 C 92 % 0 lf 1007,4 hPa 0,0 l/m 0 min 0 min 0 W/m 22,5 km/h (4 Bft) 95,74 %
08.12.2017 06:54 2,9 C 2,2 C 1,1 C 92 % 0 lf 1007,3 hPa 0,0 l/m 0 min 0 min 0 W/m 29,3 km/h (5 Bft) 97,87 %
08.12.2017 06:56 2,8 C 2,2 C 1,1 C 92 % 0 lf 1007,3 hPa 0,0 l/m 0 min 0 min 0 W/m 24,8 km/h (4 Bft) 95,74 %
08.12.2017 06:58 2,8 C 2,2 C 1,1 C 92 % 0 lf 1007,3 hPa 0,0 l/m 0 min 0 min 0 W/m 20,3 km/h (4 Bft) 97,87 %
08.12.2017 07:00 2,8 C 2,2 C 1,1 C 92 % 0 lf 1007,3 hPa 0,0 l/m 0 min 0 min 0 W/m 20,3 km/h (4 Bft) 97,87 %
08.12.2017 07:02 2,8 C 2,2 C 0,6 C 92 % 0 lf 1007,3 hPa 0,0 l/m 0 min 0 min 0 W/m 24,8 km/h (4 Bft) 95,65 %
08.12.2017 07:04 2,8 C 2,2 C 1,1 C 92 % 0 lf 1007,4 hPa 0,0 l/m 0 min 0 min 0 W/m 22,5 km/h (4 Bft) 95,74 %
08.12.2017 07:06 2,7 C 2,2 C 1,1 C 92 % 0 lf 1007,3 hPa 0,0 l/m 0 min 0 min 0 W/m 20,3 km/h (4 Bft) 100,00 %
08.12.2017 07:10 2,7 C 2,2 C 1,1 C 92 % 0 lf 1007,4 hPa 0,0 l/m 0 min 0 min 0 W/m 27,0 km/h (4 Bft) 98,02 %
08.12.2017 07:12 2,7 C 2,2 C 1,1 C 92 % 0 lf 1007,3 hPa 0,0 l/m 0 min 0 min 0 W/m 29,3 km/h (5 Bft) 95,74 %
08.12.2017 07:14 2,7 C 2,2 C 1,1 C 92 % 0 lf 1007,3 hPa 0,0 l/m 0 min 0 min 0 W/m 31,5 km/h (5 Bft) 97,87 %
08.12.2017 07:16 2,7 C 2,2 C 1,1 C 92 % 0 lf 1007,3 hPa 0,0 l/m 0 min 0 min 0 W/m 29,3 km/h (5 Bft) 97,87 %
08.12.2017 07:18 2,7 C 2,2 C 1,1 C 92 % 0 lf 1007,3 hPa 0,0 l/m 0 min 0 min 0 W/m 24,8 km/h (4 Bft) 95,74 %
08.12.2017 07:20 2,7 C 2,2 C 1,1 C 92 % 0 lf 1007,4 hPa 0,0 l/m 0 min 0 min 0 W/m 22,5 km/h (4 Bft) 93,48 %
08.12.2017 07:22 2,7 C 2,2 C 1,1 C 92 % 0 lf 1007,3 hPa 0,0 l/m 0 min 0 min 0 W/m 24,8 km/h (4 Bft) 95,74 %
08.12.2017 07:24 2,7 C 2,2 C 1,1 C 92 % 0 lf 1007,3 hPa 0,0 l/m 0 min 0 min 0 W/m 27,0 km/h (4 Bft) 93,62 %
08.12.2017 07:26 2,7 C 2,2 C 1,1 C 92 % 0 lf 1007,3 hPa 0,0 l/m 0 min 0 min 0 W/m 20,3 km/h (4 Bft) 97,87 %
08.12.2017 07:28 2,7 C 2,2 C 1,1 C 92 % 0 lf 1007,4 hPa 0,0 l/m 0 min 0 min 0 W/m 36,0 km/h (5 Bft) 97,87 %
08.12.2017 07:30 2,6 C 2,2 C 1,1 C 92 % 0 lf 1007,4 hPa 0,0 l/m 0 min 0 min 0 W/m 27,0 km/h (4 Bft) 97,83 %
08.12.2017 07:32 2,6 C 2,2 C 1,1 C 92 % 0 lf 1007,5 hPa 0,0 l/m 0 min 0 min 0 W/m 31,5 km/h (5 Bft) 97,87 %
08.12.2017 07:34 2,6 C 2,2 C 1,1 C 92 % 0 lf 1007,6 hPa 0,0 l/m 0 min 0 min 0 W/m 33,8 km/h (5 Bft) 95,74 %
08.12.2017 07:36 2,6 C 2,2 C 1,1 C 92 % 0 lf 1007,6 hPa 0,0 l/m 0 min 0 min 0 W/m 33,8 km/h (5 Bft) 95,74 %
08.12.2017 07:38 2,7 C 2,8 C 1,1 C 92 % 0 lf 1007,5 hPa 0,0 l/m 0 min 0 min 0 W/m 49,6 km/h (6 Bft) 100,00 %
08.12.2017 07:40 2,7 C 2,8 C 1,7 C 92 % 0 lf 1007,6 hPa 0,0 l/m 0 min 0 min 0 W/m 33,8 km/h (5 Bft) 100,00 %
08.12.2017 07:42 2,7 C 2,8 C 1,7 C 92 % 0 lf 1007,7 hPa 0,0 l/m 0 min 0 min 0 W/m 31,5 km/h (5 Bft) 97,83 %
08.12.2017 07:44 2,8 C 2,8 C 1,7 C 92 % 4 lf 1007,7 hPa 0,0 l/m 0 min 2 min 0 W/m 47,3 km/h (6 Bft) 100,00 %
08.12.2017 07:46 2,8 C 2,8 C 1,7 C 92 % 5 lf 1007,7 hPa 0,0 l/m 0 min 2 min 0 W/m 31,5 km/h (5 Bft) 100,00 %
08.12.2017 07:48 2,8 C 2,8 C 1,7 C 92 % 14 lf 1007,8 hPa 0,0 l/m 0 min 2 min 0 W/m 24,8 km/h (4 Bft) 100,00 %
08.12.2017 07:50 2,8 C 2,8 C 1,7 C 92 % 15 lf 1007,9 hPa 0,0 l/m 0 min 2 min 0 W/m 31,5 km/h (5 Bft) 100,00 %
08.12.2017 07:52 2,8 C 2,8 C 1,1 C 92 % 15 lf 1007,9 hPa 0,0 l/m 0 min 2 min 0 W/m 51,8 km/h (7 Bft) 97,87 %
08.12.2017 07:54 2,8 C 2,2 C 1,1 C 92 % 15 lf 1007,8 hPa 0,0 l/m 0 min 2 min 0 W/m 33,8 km/h (5 Bft) 91,30 %
08.12.2017 07:56 2,7 C 2,2 C 1,1 C 92 % 15 lf 1007,7 hPa 0,0 l/m 0 min 2 min 0 W/m 29,3 km/h (5 Bft) 97,87 %
08.12.2017 07:58 2,7 C 2,2 C 1,1 C 92 % 15 lf 1007,8 hPa 0,0 l/m 0 min 2 min 0 W/m 27,0 km/h (4 Bft) 97,87 %
08.12.2017 08:00 2,6 C 2,2 C 1,1 C 92 % 15 lf 1007,8 hPa 0,0 l/m 0 min 2 min 0 W/m 18,0 km/h (3 Bft) 97,87 %
08.12.2017 08:02 2,6 C 2,2 C 1,1 C 92 % 15 lf 1007,7 hPa 0,0 l/m 0 min 2 min 0 W/m 27,0 km/h (4 Bft) 95,74 %
08.12.2017 08:04 2,6 C 2,2 C 1,1 C 92 % 15 lf 1007,7 hPa 0,0 l/m 0 min 2 min 0 W/m 27,0 km/h (4 Bft) 97,87 %
08.12.2017 08:06 2,6 C 2,2 C 1,1 C 92 % 15 lf 1007,8 hPa 0,0 l/m 0 min 2 min 0 W/m 27,0 km/h (4 Bft) 95,65 %
08.12.2017 08:10 2,5 C 2,2 C 0,6 C 92 % 15 lf 1007,7 hPa 0,0 l/m 0 min 4 min 0 W/m 31,5 km/h (5 Bft) 95,83 %
08.12.2017 08:12 2,4 C 2,2 C 0,6 C 92 % 15 lf 1007,8 hPa 0,0 l/m 0 min 2 min 0 W/m 24,8 km/h (4 Bft) 93,62 %
08.12.2017 08:14 2,4 C 2,2 C 0,6 C 92 % 15 lf 1007,7 hPa 0,0 l/m 0 min 2 min 0 W/m 29,3 km/h (5 Bft) 95,74 %
08.12.2017 08:16 2,4 C 2,2 C 0,6 C 92 % 15 lf 1007,7 hPa 0,0 l/m 0 min 2 min 0 W/m 45,1 km/h (6 Bft) 97,83 %
08.12.2017 08:18 2,4 C 2,2 C 0,6 C 92 % 15 lf 1007,7 hPa 0,0 l/m 0 min 2 min 0 W/m 29,3 km/h (5 Bft) 97,87 %
08.12.2017 08:20 2,3 C 1,7 C 0,6 C 92 % 15 lf 1007,7 hPa 0,0 l/m 0 min 2 min 0 W/m 31,5 km/h (5 Bft) 95,74 %
08.12.2017 08:22 2,3 C 1,7 C 0,6 C 92 % 15 lf 1007,9 hPa 0,0 l/m 0 min 2 min 0 W/m 22,5 km/h (4 Bft) 97,87 %
08.12.2017 08:24 2,3 C 2,2 C 0,6 C 92 % 15 lf 1007,8 hPa 0,0 l/m 0 min 2 min 0 W/m 31,5 km/h (5 Bft) 97,87 %
08.12.2017 08:26 2,3 C 1,7 C 0,6 C 92 % 15 lf 1007,8 hPa 0,0 l/m 0 min 2 min 0 W/m 29,3 km/h (5 Bft) 95,74 %
08.12.2017 08:28 2,3 C 1,7 C 0,6 C 92 % 15 lf 1007,7 hPa 0,0 l/m 0 min 2 min 0 W/m 36,0 km/h (5 Bft) 95,65 %
08.12.2017 08:30 2,2 C 1,7 C 0,6 C 92 % 15 lf 1007,7 hPa 0,0 l/m 0 min 2 min 4 W/m 29,3 km/h (5 Bft) 95,74 %
08.12.2017 08:32 2,2 C 1,7 C 0,0 C 92 % 15 lf 1007,6 hPa 0,0 l/m 0 min 2 min 5 W/m 31,5 km/h (5 Bft) 93,62 %
08.12.2017 08:34 2,1 C 1,7 C 0,0 C 92 % 15 lf 1007,6 hPa 0,0 l/m 0 min 2 min 5 W/m 36,0 km/h (5 Bft) 97,87 %
08.12.2017 08:36 2,1 C 1,1 C 0,0 C 92 % 15 lf 1007,6 hPa 0,0 l/m 0 min 2 min 6 W/m 27,0 km/h (4 Bft) 97,87 %
08.12.2017 08:38 2,0 C 1,1 C 0,0 C 92 % 15 lf 1007,6 hPa 0,0 l/m 0 min 0 min 7 W/m 27,0 km/h (4 Bft) 95,74 %
08.12.2017 08:40 1,9 C 1,1 C 0,0 C 92 % 15 lf 1007,6 hPa 0,0 l/m 0 min 2 min 7 W/m 22,5 km/h (4 Bft) 100,00 %
08.12.2017 08:42 1,8 C 1,1 C -0,6 C 92 % 15 lf 1007,6 hPa 0,0 l/m 0 min 2 min 9 W/m 31,5 km/h (5 Bft) 100,00 %
08.12.2017 08:44 1,8 C 1,1 C -0,6 C 92 % 15 lf 1007,6 hPa 0,0 l/m 0 min 0 min 9 W/m 31,5 km/h (5 Bft) 95,74 %
08.12.2017 08:46 1,8 C 1,1 C 0,0 C 92 % 15 lf 1007,7 hPa 0,0 l/m 0 min 2 min 11 W/m 27,0 km/h (4 Bft) 95,74 %
08.12.2017 08:48 1,7 C 1,1 C 0,0 C 92 % 15 lf 1007,7 hPa 0,0 l/m 0 min 2 min 11 W/m 24,8 km/h (4 Bft) 100,00 %
08.12.2017 08:50 1,7 C 1,1 C -0,6 C 92 % 15 lf 1007,7 hPa 0,0 l/m 0 min 0 min 11 W/m 20,3 km/h (4 Bft) 97,87 %
08.12.2017 08:52 1,7 C 1,1 C -0,6 C 92 % 15 lf 1007,7 hPa 0,0 l/m 0 min 0 min 11 W/m 15,8 km/h (3 Bft) 97,83 %
08.12.2017 08:54 1,6 C 1,1 C 0,0 C 92 % 15 lf 1007,7 hPa 0,0 l/m 0 min 0 min 11 W/m 18,0 km/h (3 Bft) 100,00 %
08.12.2017 08:56 1,6 C 1,1 C 0,0 C 92 % 15 lf 1007,8 hPa 0,0 l/m 0 min 2 min 11 W/m 22,5 km/h (4 Bft) 100,00 %
08.12.2017 08:58 1,6 C 1,1 C 0,0 C 92 % 15 lf 1007,7 hPa 0,0 l/m 0 min 0 min 12 W/m 18,0 km/h (3 Bft) 97,87 %
08.12.2017 09:00 1,6 C 1,1 C 0,0 C 92 % 15 lf 1007,7 hPa 0,0 l/m 0 min 2 min 12 W/m 20,3 km/h (4 Bft) 95,74 %
08.12.2017 09:02 1,6 C 1,1 C 0,0 C 92 % 15 lf 1007,7 hPa 0,0 l/m 0 min 2 min 14 W/m 20,3 km/h (4 Bft) 91,49 %
08.12.2017 09:04 1,6 C 1,7 C 0,0 C 92 % 15 lf 1007,6 hPa 0,0 l/m 0 min 2 min 18 W/m 31,5 km/h (5 Bft) 97,83 %
08.12.2017 09:06 1,6 C 1,7 C 0,0 C 92 % 15 lf 1007,7 hPa 0,0 l/m 0 min 2 min 20 W/m 24,8 km/h (4 Bft) 97,87 %
08.12.2017 09:10 1,6 C 1,7 C 0,0 C 92 % 15 lf 1007,7 hPa 0,0 l/m 0 min 4 min 33 W/m 27,0 km/h (4 Bft) 96,88 %
08.12.2017 09:12 1,7 C 1,7 C 0,6 C 92 % 15 lf 1007,7 hPa 0,0 l/m 0 min 0 min 42 W/m 18,0 km/h (3 Bft) 95,74 %
08.12.2017 09:14 1,7 C 1,7 C 0,6 C 92 % 15 lf 1007,7 hPa 0,0 l/m 0 min 0 min 43 W/m 18,0 km/h (3 Bft) 95,74 %
08.12.2017 09:16 1,7 C 1,7 C 0,6 C 93 % 15 lf 1007,7 hPa 0,0 l/m 0 min 0 min 40 W/m 18,0 km/h (3 Bft) 95,74 %
08.12.2017 09:18 1,7 C 1,7 C 0,6 C 92 % 15 lf 1007,7 hPa 0,0 l/m 0 min 0 min 43 W/m 18,0 km/h (3 Bft) 95,65 %
08.12.2017 09:20 1,7 C 1,7 C 0,6 C 93 % 15 lf 1007,7 hPa 0,0 l/m 0 min 2 min 44 W/m 20,3 km/h (4 Bft) 95,74 %
08.12.2017 09:22 1,7 C 1,7 C 0,0 C 93 % 15 lf 1007,7 hPa 0,0 l/m 0 min 0 min 44 W/m 22,5 km/h (4 Bft) 93,75 %
08.12.2017 09:24 1,7 C 1,7 C 0,0 C 93 % 15 lf 1007,7 hPa 0,0 l/m 0 min 0 min 40 W/m 20,3 km/h (4 Bft) 95,74 %
08.12.2017 09:26 1,7 C 1,7 C 0,0 C 93 % 15 lf 1007,7 hPa 0,0 l/m 0 min 0 min 41 W/m 18,0 km/h (3 Bft) 93,48 %
08.12.2017 09:28 1,7 C 1,7 C 0,0 C 93 % 15 lf 1007,7 hPa 0,0 l/m 0 min 0 min 43 W/m 18,0 km/h (3 Bft) 97,87 %
08.12.2017 09:30 1,7 C 1,7 C 0,0 C 93 % 15 lf 1007,7 hPa 0,0 l/m 0 min 0 min 45 W/m 15,8 km/h (3 Bft) 95,74 %
08.12.2017 09:32 1,7 C 1,7 C 0,0 C 93 % 14 lf 1007,7 hPa 0,0 l/m 0 min 0 min 47 W/m 13,5 km/h (3 Bft) 97,87 %
08.12.2017 09:34 1,7 C 1,7 C 0,0 C 93 % 14 lf 1007,8 hPa 0,0 l/m 2 min 0 min 73 W/m 20,3 km/h (4 Bft) 93,62 %
08.12.2017 09:36 1,7 C 2,2 C 0,6 C 93 % 13 lf 1007,8 hPa 0,0 l/m 2 min 0 min 101 W/m 20,3 km/h (4 Bft) 95,74 %
08.12.2017 09:38 1,8 C 2,2 C 0,6 C 93 % 13 lf 1007,7 hPa 0,0 l/m 2 min 0 min 112 W/m 13,5 km/h (3 Bft) 93,48 %
08.12.2017 09:40 1,8 C 2,8 C 0,6 C 93 % 12 lf 1007,8 hPa 0,0 l/m 2 min 0 min 102 W/m 9,0 km/h (2 Bft) 97,87 %
08.12.2017 09:42 1,8 C 2,8 C 0,6 C 93 % 12 lf 1007,7 hPa 0,0 l/m 0 min 0 min 73 W/m 15,8 km/h (3 Bft) 95,74 %
08.12.2017 09:44 1,8 C 2,2 C 0,6 C 93 % 11 lf 1007,7 hPa 0,0 l/m 0 min 0 min 65 W/m 24,8 km/h (4 Bft) 97,87 %
08.12.2017 09:46 1,8 C 2,2 C 0,6 C 93 % 11 lf 1007,7 hPa 0,0 l/m 0 min 2 min 75 W/m 15,8 km/h (3 Bft) 97,87 %
08.12.2017 09:48 1,9 C 2,8 C 1,1 C 93 % 9 lf 1007,7 hPa 0,0 l/m 2 min 0 min 104 W/m 13,5 km/h (3 Bft) 97,87 %
08.12.2017 09:50 1,9 C 2,8 C 1,1 C 93 % 7 lf 1007,7 hPa 0,0 l/m 2 min 0 min 122 W/m 20,3 km/h (4 Bft) 95,65 %
08.12.2017 09:52 1,9 C 3,3 C 1,1 C 94 % 5 lf 1007,7 hPa 0,0 l/m 2 min 0 min 127 W/m 18,0 km/h (3 Bft) 95,74 %
08.12.2017 09:54 2,0 C 3,3 C 1,1 C 93 % 4 lf 1007,6 hPa 0,0 l/m 2 min 0 min 132 W/m 22,5 km/h (4 Bft) 97,87 %
08.12.2017 09:56 2,1 C 3,3 C 1,7 C 94 % 2 lf 1007,6 hPa 0,0 l/m 2 min 0 min 137 W/m 22,5 km/h (4 Bft) 95,74 %
08.12.2017 09:58 2,1 C 3,3 C 1,7 C 94 % 2 lf 1007,6 hPa 0,0 l/m 2 min 0 min 123 W/m 15,8 km/h (3 Bft) 93,62 %
08.12.2017 10:00 2,2 C 3,3 C 1,7 C 94 % 1 lf 1007,6 hPa 0,0 l/m 2 min 2 min 132 W/m 29,3 km/h (5 Bft) 97,83 %
08.12.2017 10:02 2,2 C 3,3 C 1,7 C 94 % 0 lf 1007,5 hPa 0,0 l/m 2 min 2 min 146 W/m 22,5 km/h (4 Bft) 97,87 %
08.12.2017 10:04 2,3 C 3,3 C 1,1 C 94 % 0 lf 1007,5 hPa 0,0 l/m 0 min 2 min 88 W/m 22,5 km/h (4 Bft) 97,87 %
08.12.2017 10:06 2,3 C 3,3 C 1,1 C 94 % 0 lf 1007,4 hPa 0,0 l/m 0 min 2 min 67 W/m 31,5 km/h (5 Bft) 97,87 %
08.12.2017 10:10 2,4 C 3,3 C 1,7 C 94 % 0 lf 1007,5 hPa 0,0 l/m 4 min 0 min 129 W/m 31,5 km/h (5 Bft) 96,34 %
08.12.2017 10:12 2,4 C 3,9 C 1,7 C 94 % 0 lf 1007,5 hPa 0,0 l/m 2 min 2 min 158 W/m 27,0 km/h (4 Bft) 95,74 %
08.12.2017 10:14 2,5 C 3,9 C 2,2 C 94 % 1 lf 1007,5 hPa 0,2 l/m 2 min 2 min 128 W/m 33,8 km/h (5 Bft) 95,74 %
08.12.2017 10:16 2,6 C 3,9 C 2,2 C 94 % 0 lf 1007,6 hPa 0,0 l/m 2 min 2 min 139 W/m 29,3 km/h (5 Bft) 97,87 %
08.12.2017 10:18 2,7 C 3,3 C 2,2 C 94 % 14 lf 1007,6 hPa 0,0 l/m 0 min 2 min 67 W/m 31,5 km/h (5 Bft) 94,55 %
08.12.2017 10:20 2,7 C 3,3 C 1,7 C 94 % 15 lf 1007,5 hPa 0,0 l/m 0 min 2 min 29 W/m 36,0 km/h (5 Bft) 97,87 %
08.12.2017 10:22 2,7 C 2,8 C 1,7 C 94 % 15 lf 1007,5 hPa 0,0 l/m 0 min 2 min 22 W/m 33,8 km/h (5 Bft) 98,00 %
08.12.2017 10:24 2,7 C 2,8 C 1,1 C 93 % 15 lf 1007,5 hPa 0,0 l/m 0 min 2 min 26 W/m 36,0 km/h (5 Bft) 95,65 %
08.12.2017 10:26 2,7 C 2,8 C 1,1 C 93 % 15 lf 1007,4 hPa 0,0 l/m 0 min 2 min 30 W/m 31,5 km/h (5 Bft) 93,62 %
08.12.2017 10:28 2,7 C 2,8 C 1,1 C 93 % 15 lf 1007,5 hPa 0,0 l/m 0 min 2 min 26 W/m 33,8 km/h (5 Bft) 87,23 %
08.12.2017 10:30 2,7 C 2,8 C 1,1 C 93 % 15 lf 1007,5 hPa 0,0 l/m 0 min 2 min 24 W/m 38,3 km/h (5 Bft) 91,43 %
08.12.2017 10:32 2,7 C 2,2 C 1,1 C 93 % 15 lf 1007,6 hPa 0,0 l/m 0 min 2 min 27 W/m 42,8 km/h (6 Bft) 95,74 %
08.12.2017 10:34 2,7 C 2,8 C 1,1 C 93 % 15 lf 1007,6 hPa 0,0 l/m 0 min 2 min 35 W/m 38,3 km/h (5 Bft) 95,74 %
08.12.2017 10:36 2,7 C 2,8 C 1,1 C 93 % 15 lf 1007,7 hPa 0,0 l/m 0 min 2 min 68 W/m 31,5 km/h (5 Bft) 95,74 %
08.12.2017 10:38 2,7 C 2,8 C 1,7 C 93 % 15 lf 1007,7 hPa 0,0 l/m 0 min 2 min 87 W/m 38,3 km/h (5 Bft) 93,62 %
08.12.2017 10:40 2,7 C 3,3 C 1,7 C 92 % 15 lf 1007,7 hPa 0,0 l/m 2 min 0 min 144 W/m 47,3 km/h (6 Bft) 93,62 %
08.12.2017 10:42 2,7 C 3,3 C 1,7 C 92 % 15 lf 1007,8 hPa 0,0 l/m 2 min 2 min 130 W/m 33,8 km/h (5 Bft) 95,65 %
08.12.2017 10:44 2,8 C 3,3 C 1,7 C 92 % 15 lf 1007,9 hPa 0,0 l/m 0 min 2 min 92 W/m 60,8 km/h (7 Bft) 93,62 %
08.12.2017 10:46 2,8 C 2,8 C 1,1 C 92 % 15 lf 1007,9 hPa 0,0 l/m 0 min 2 min 32 W/m 38,3 km/h (5 Bft) 93,62 %
08.12.2017 10:48 2,8 C 2,2 C 1,1 C 92 % 15 lf 1007,9 hPa 0,0 l/m 0 min 2 min 19 W/m 33,8 km/h (5 Bft) 93,62 %
08.12.2017 10:50 2,8 C 2,2 C 1,1 C 92 % 15 lf 1007,9 hPa 0,2 l/m 0 min 2 min 17 W/m 27,0 km/h (4 Bft) 95,74 %
08.12.2017 10:52 2,7 C 2,2 C 1,1 C 92 % 15 lf 1007,9 hPa 0,0 l/m 0 min 2 min 22 W/m 33,8 km/h (5 Bft) 93,62 %
08.12.2017 10:54 2,7 C 2,2 C 1,1 C 92 % 15 lf 1007,9 hPa 0,0 l/m 0 min 2 min 29 W/m 40,6 km/h (6 Bft) 93,48 %
08.12.2017 10:56 2,7 C 2,2 C 1,1 C 92 % 15 lf 1007,9 hPa 0,0 l/m 0 min 2 min 35 W/m 33,8 km/h (5 Bft) 94,64 %
08.12.2017 10:58 2,6 C 2,2 C 1,1 C 92 % 15 lf 1007,9 hPa 0,2 l/m 0 min 2 min 37 W/m 38,3 km/h (5 Bft) 91,49 %
08.12.2017 11:00 2,6 C 2,2 C 1,1 C 92 % 15 lf 1007,8 hPa 0,0 l/m 0 min 0 min 37 W/m 29,3 km/h (5 Bft) 91,30 %
08.12.2017 11:02 2,6 C 2,2 C 1,1 C 92 % 15 lf 1007,7 hPa 0,0 l/m 0 min 2 min 45 W/m 38,3 km/h (5 Bft) 93,62 %
08.12.2017 11:04 2,6 C 2,2 C 1,1 C 92 % 15 lf 1007,8 hPa 0,0 l/m 0 min 2 min 54 W/m 36,0 km/h (5 Bft) 95,74 %
08.12.2017 11:06 2,6 C 2,2 C 1,1 C 92 % 15 lf 1007,8 hPa 0,0 l/m 0 min 2 min 66 W/m 33,8 km/h (5 Bft) 92,00 %
08.12.2017 11:08 2,6 C 2,2 C 1,1 C 93 % 15 lf 1007,7 hPa 0,0 l/m 0 min 0 min 64 W/m 31,5 km/h (5 Bft) 93,62 %
08.12.2017 11:10 2,6 C 2,2 C 1,1 C 92 % 15 lf 1007,8 hPa 0,0 l/m 0 min 0 min 64 W/m 33,8 km/h (5 Bft) 95,65 %
08.12.2017 11:12 2,6 C 2,2 C 1,1 C 93 % 15 lf 1007,7 hPa 0,0 l/m 0 min 2 min 87 W/m 38,3 km/h (5 Bft) 95,74 %
08.12.2017 11:14 2,6 C 2,2 C 1,7 C 93 % 15 lf 1007,7 hPa 0,0 l/m 0 min 0 min 111 W/m 36,0 km/h (5 Bft) 93,62 %
08.12.2017 11:16 2,6 C 2,8 C 1,7 C 93 % 15 lf 1007,7 hPa 0,0 l/m 0 min 0 min 119 W/m 31,5 km/h (5 Bft) 95,74 %
08.12.2017 11:18 2,6 C 2,8 C 1,7 C 93 % 15 lf 1007,8 hPa 0,0 l/m 2 min 0 min 146 W/m 29,3 km/h (5 Bft) 97,87 %
08.12.2017 11:20 2,6 C 2,8 C 1,7 C 93 % 15 lf 1007,8 hPa 0,0 l/m 2 min 0 min 144 W/m 36,0 km/h (5 Bft) 95,74 %
08.12.2017 11:22 2,7 C 3,3 C 2,2 C 93 % 15 lf 1007,8 hPa 0,0 l/m 2 min 0 min 202 W/m 40,6 km/h (6 Bft) 94,29 %
08.12.2017 11:24 2,7 C 3,9 C 2,8 C 93 % 15 lf 1007,7 hPa 0,0 l/m 2 min 0 min 266 W/m 36,0 km/h (5 Bft) 97,87 %
08.12.2017 11:26 2,8 C 3,3 C 2,2 C 93 % 15 lf 1007,7 hPa 0,0 l/m 2 min 2 min 178 W/m 51,8 km/h (7 Bft) 97,87 %
08.12.2017 11:28 2,8 C 3,3 C 2,2 C 93 % 15 lf 1007,7 hPa 0,0 l/m 0 min 2 min 126 W/m 40,6 km/h (6 Bft) 100,00 %
08.12.2017 11:30 2,9 C 3,3 C 2,2 C 93 % 15 lf 1007,7 hPa 0,0 l/m 0 min 2 min 132 W/m 42,8 km/h (6 Bft) 100,00 %
08.12.2017 11:32 2,9 C 3,3 C 1,7 C 93 % 15 lf 1007,7 hPa 0,0 l/m 0 min 2 min 130 W/m 51,8 km/h (7 Bft) 100,00 %
08.12.2017 11:34 2,9 C 3,3 C 1,7 C 93 % 15 lf 1007,7 hPa 0,0 l/m 0 min 2 min 129 W/m 36,0 km/h (5 Bft) 97,87 %
08.12.2017 11:36 2,9 C 3,3 C 1,7 C 93 % 15 lf 1007,7 hPa 0,0 l/m 0 min 2 min 120 W/m 38,3 km/h (5 Bft) 93,62 %
08.12.2017 11:38 2,9 C 3,3 C 1,7 C 93 % 15 lf 1007,7 hPa 0,0 l/m 0 min 2 min 111 W/m 51,8 km/h (7 Bft) 97,87 %
08.12.2017 11:40 2,9 C 3,3 C 1,7 C 93 % 15 lf 1007,7 hPa 0,0 l/m 0 min 2 min 102 W/m 54,1 km/h (7 Bft) 100,00 %
08.12.2017 11:42 2,9 C 3,3 C 1,7 C 93 % 15 lf 1007,5 hPa 0,0 l/m 0 min 2 min 99 W/m 36,0 km/h (5 Bft) 100,00 %
08.12.2017 11:44 2,9 C 3,3 C 1,7 C 93 % 15 lf 1007,5 hPa 0,0 l/m 0 min 2 min 98 W/m 40,6 km/h (6 Bft) 97,87 %
08.12.2017 11:46 2,9 C 3,3 C 1,7 C 93 % 15 lf 1007,5 hPa 0,0 l/m 0 min 2 min 69 W/m 36,0 km/h (5 Bft) 100,00 %
08.12.2017 11:48 2,9 C 3,3 C 1,7 C 93 % 15 lf 1007,5 hPa 0,0 l/m 0 min 2 min 70 W/m 31,5 km/h (5 Bft) 100,00 %
08.12.2017 11:50 2,9 C 3,3 C 1,7 C 93 % 15 lf 1007,5 hPa 0,0 l/m 0 min 2 min 60 W/m 47,3 km/h (6 Bft) 100,00 %
08.12.2017 11:52 2,9 C 2,8 C 1,7 C 93 % 15 lf 1007,6 hPa 0,0 l/m 0 min 2 min 52 W/m 47,3 km/h (6 Bft) 97,83 %
08.12.2017 11:54 2,9 C 2,8 C 1,7 C 92 % 15 lf 1007,6 hPa 0,0 l/m 0 min 2 min 52 W/m 45,1 km/h (6 Bft) 100,00 %
08.12.2017 11:56 2,9 C 2,8 C 1,7 C 92 % 15 lf 1007,5 hPa 0,0 l/m 0 min 2 min 58 W/m 33,8 km/h (5 Bft) 100,00 %
08.12.2017 11:58 2,8 C 2,8 C 1,7 C 92 % 15 lf 1007,5 hPa 0,0 l/m 0 min 2 min 75 W/m 36,0 km/h (5 Bft) 97,87 %
08.12.2017 12:00 2,8 C 2,8 C 1,7 C 92 % 15 lf 1007,5 hPa 0,0 l/m 0 min 2 min 77 W/m 42,8 km/h (6 Bft) 95,74 %
08.12.2017 12:02 2,8 C 2,8 C 1,7 C 92 % 15 lf 1007,4 hPa 0,0 l/m 0 min 2 min 95 W/m 38,3 km/h (5 Bft) 95,83 %
08.12.2017 12:04 2,8 C 2,8 C 1,7 C 92 % 15 lf 1007,4 hPa 0,0 l/m 0 min 2 min 89 W/m 33,8 km/h (5 Bft) 100,00 %
08.12.2017 12:06 2,8 C 2,8 C 1,7 C 92 % 15 lf 1007,3 hPa 0,0 l/m 0 min 2 min 75 W/m 40,6 km/h (6 Bft) 95,74 %
08.12.2017 12:10 2,8 C 2,8 C 1,7 C 92 % 15 lf 1007,4 hPa 0,0 l/m 0 min 0 min 71 W/m 33,8 km/h (5 Bft) 95,79 %
08.12.2017 12:12 2,8 C 2,8 C 1,7 C 92 % 15 lf 1007,4 hPa 0,0 l/m 0 min 2 min 50 W/m 49,6 km/h (6 Bft) 97,87 %
08.12.2017 12:14 2,8 C 2,8 C 1,7 C 93 % 15 lf 1007,4 hPa 0,0 l/m 0 min 2 min 40 W/m 40,6 km/h (6 Bft) 97,87 %
08.12.2017 12:16 2,8 C 2,8 C 1,7 C 93 % 15 lf 1007,4 hPa 0,0 l/m 0 min 2 min 37 W/m 31,5 km/h (5 Bft) 97,87 %
08.12.2017 12:18 2,8 C 2,8 C 1,7 C 93 % 15 lf 1007,5 hPa 0,0 l/m 0 min 2 min 32 W/m 40,6 km/h (6 Bft) 95,74 %
08.12.2017 12:20 2,8 C 2,8 C 1,7 C 93 % 15 lf 1007,4 hPa 0,0 l/m 0 min 2 min 25 W/m 31,5 km/h (5 Bft) 97,87 %
08.12.2017 12:22 2,8 C 2,8 C 1,7 C 93 % 15 lf 1007,4 hPa 0,0 l/m 0 min 2 min 21 W/m 36,0 km/h (5 Bft) 97,83 %
08.12.2017 12:24 2,7 C 2,8 C 1,1 C 93 % 15 lf 1007,5 hPa 0,0 l/m 0 min 2 min 18 W/m 31,5 km/h (5 Bft) 97,87 %
08.12.2017 12:26 2,7 C 2,2 C 1,1 C 93 % 15 lf 1007,4 hPa 0,0 l/m 0 min 2 min 20 W/m 33,8 km/h (5 Bft) 95,74 %
08.12.2017 12:28 2,7 C 2,2 C 1,1 C 93 % 15 lf 1007,4 hPa 0,2 l/m 0 min 2 min 21 W/m 38,3 km/h (5 Bft) 97,87 %
08.12.2017 12:30 2,7 C 2,2 C 1,1 C 93 % 15 lf 1007,4 hPa 0,0 l/m 0 min 2 min 25 W/m 31,5 km/h (5 Bft) 97,87 %
08.12.2017 12:32 2,7 C 2,2 C 1,1 C 93 % 15 lf 1007,4 hPa 0,0 l/m 0 min 2 min 26 W/m 42,8 km/h (6 Bft) 97,92 %
08.12.2017 12:34 2,7 C 2,2 C 1,1 C 93 % 15 lf 1007,5 hPa 0,0 l/m 0 min 2 min 24 W/m 27,0 km/h (4 Bft) 94,29 %
08.12.2017 12:36 2,6 C 2,2 C 1,1 C 93 % 15 lf 1007,6 hPa 0,0 l/m 0 min 2 min 19 W/m 33,8 km/h (5 Bft) 97,87 %
08.12.2017 12:38 2,6 C 2,2 C 1,1 C 93 % 15 lf 1007,7 hPa 0,0 l/m 0 min 2 min 19 W/m 40,6 km/h (6 Bft) 95,74 %
08.12.2017 12:40 2,6 C 2,2 C 1,1 C 93 % 15 lf 1007,6 hPa 0,0 l/m 0 min 2 min 29 W/m 31,5 km/h (5 Bft) 93,48 %
08.12.2017 12:42 2,6 C 2,2 C 1,1 C 93 % 15 lf 1007,6 hPa 0,0 l/m 0 min 2 min 37 W/m 29,3 km/h (5 Bft) 93,62 %
08.12.2017 12:44 2,6 C 2,2 C 1,1 C 93 % 15 lf 1007,5 hPa 0,0 l/m 0 min 2 min 41 W/m 31,5 km/h (5 Bft) 95,74 %
08.12.2017 12:46 2,6 C 2,2 C 1,7 C 93 % 15 lf 1007,5 hPa 0,0 l/m 0 min 2 min 47 W/m 36,0 km/h (5 Bft) 97,87 %
08.12.2017 12:48 2,6 C 2,2 C 1,7 C 93 % 15 lf 1007,6 hPa 0,0 l/m 0 min 2 min 53 W/m 31,5 km/h (5 Bft) 93,62 %
08.12.2017 12:50 2,6 C 2,2 C 1,7 C 93 % 15 lf 1007,6 hPa 0,2 l/m 0 min 2 min 61 W/m 29,3 km/h (5 Bft) 96,30 %
08.12.2017 12:52 2,6 C 2,2 C 1,7 C 93 % 15 lf 1007,6 hPa 0,0 l/m 0 min 2 min 61 W/m 38,3 km/h (5 Bft) 95,74 %
08.12.2017 12:54 2,6 C 2,2 C 1,7 C 94 % 15 lf 1007,6 hPa 0,0 l/m 0 min 2 min 67 W/m 29,3 km/h (5 Bft) 93,62 %
08.12.2017 12:56 2,6 C 2,2 C 1,7 C 94 % 15 lf 1007,6 hPa 0,0 l/m 0 min 0 min 73 W/m 24,8 km/h (4 Bft) 93,88 %
08.12.2017 12:58 2,6 C 2,2 C 1,7 C 94 % 15 lf 1007,7 hPa 0,0 l/m 0 min 2 min 61 W/m 29,3 km/h (5 Bft) 93,88 %
08.12.2017 13:00 2,6 C 2,2 C 1,7 C 94 % 15 lf 1007,7 hPa 0,0 l/m 0 min 2 min 47 W/m 29,3 km/h (5 Bft) 91,43 %
08.12.2017 13:02 2,6 C 2,2 C 1,7 C 94 % 15 lf 1007,7 hPa 0,0 l/m 0 min 2 min 46 W/m 27,0 km/h (4 Bft) 95,74 %
08.12.2017 13:04 2,5 C 2,2 C 1,7 C 94 % 15 lf 1007,7 hPa 0,0 l/m 0 min 2 min 43 W/m 27,0 km/h (4 Bft) 100,00 %
08.12.2017 13:06 2,5 C 2,2 C 1,1 C 94 % 15 lf 1007,7 hPa 0,0 l/m 0 min 2 min 26 W/m 15,8 km/h (3 Bft) 90,91 %
08.12.2017 13:08 2,4 C 2,2 C 1,1 C 94 % 15 lf 1007,8 hPa 0,0 l/m 0 min 2 min 20 W/m 29,3 km/h (5 Bft) 93,88 %
08.12.2017 13:10 2,4 C 2,2 C 1,1 C 94 % 15 lf 1007,9 hPa 0,0 l/m 0 min 2 min 21 W/m 22,5 km/h (4 Bft) 95,74 %
08.12.2017 13:12 2,4 C 2,2 C 1,1 C 94 % 15 lf 1007,9 hPa 0,0 l/m 0 min 2 min 18 W/m 18,0 km/h (3 Bft) 95,83 %
08.12.2017 13:14 2,4 C 1,7 C 1,1 C 94 % 15 lf 1007,9 hPa 0,0 l/m 0 min 2 min 17 W/m 42,8 km/h (6 Bft) 97,22 %
08.12.2017 13:16 2,3 C 1,7 C 0,6 C 94 % 15 lf 1007,9 hPa 0,2 l/m 0 min 2 min 14 W/m 27,0 km/h (4 Bft) 91,30 %
08.12.2017 13:18 2,3 C 1,7 C 0,6 C 94 % 15 lf 1008,0 hPa 0,0 l/m 0 min 2 min 14 W/m 29,3 km/h (5 Bft) 96,36 %
08.12.2017 13:20 2,2 C 1,1 C 0,6 C 94 % 15 lf 1008,2 hPa 0,0 l/m 0 min 2 min 15 W/m 33,8 km/h (5 Bft) 95,74 %
08.12.2017 13:22 2,1 C 1,1 C 0,6 C 94 % 15 lf 1008,2 hPa 0,0 l/m 0 min 2 min 15 W/m 22,5 km/h (4 Bft) 93,88 %
08.12.2017 13:24 2,0 C 1,1 C 0,0 C 94 % 15 lf 1008,2 hPa 0,2 l/m 0 min 2 min 12 W/m 24,8 km/h (4 Bft) 95,74 %
08.12.2017 13:26 1,9 C 1,1 C 0,0 C 94 % 15 lf 1008,3 hPa 0,0 l/m 0 min 2 min 12 W/m 29,3 km/h (5 Bft) 97,92 %
08.12.2017 13:28 1,8 C 1,1 C 0,0 C 94 % 15 lf 1008,3 hPa 0,0 l/m 0 min 2 min 11 W/m 27,0 km/h (4 Bft) 97,87 %
08.12.2017 13:30 1,7 C 1,1 C 0,0 C 94 % 15 lf 1008,3 hPa 0,0 l/m 0 min 2 min 11 W/m 27,0 km/h (4 Bft) 97,14 %
08.12.2017 13:32 1,7 C 0,6 C -0,6 C 94 % 15 lf 1008,3 hPa 0,0 l/m 0 min 2 min 12 W/m 24,8 km/h (4 Bft) 95,74 %
08.12.2017 13:34 1,6 C 0,6 C -0,6 C 94 % 15 lf 1008,4 hPa 0,0 l/m 0 min 2 min 15 W/m 31,5 km/h (5 Bft) 95,74 %
08.12.2017 13:36 1,5 C 0,6 C -1,1 C 94 % 15 lf 1008,4 hPa 0,2 l/m 0 min 2 min 20 W/m 18,0 km/h (3 Bft) 96,30 %
08.12.2017 13:38 1,4 C 0,6 C -0,6 C 94 % 15 lf 1008,4 hPa 0,0 l/m 0 min 2 min 29 W/m 18,0 km/h (3 Bft) 98,00 %
08.12.2017 13:40 1,3 C 0,6 C -0,6 C 94 % 15 lf 1008,5 hPa 0,0 l/m 0 min 2 min 38 W/m 15,8 km/h (3 Bft) 97,92 %
08.12.2017 13:42 1,3 C 0,6 C -0,6 C 94 % 15 lf 1008,5 hPa 0,0 l/m 0 min 2 min 44 W/m 11,3 km/h (2 Bft) 97,14 %
08.12.2017 13:44 1,2 C 0,6 C 0,0 C 94 % 15 lf 1008,5 hPa 0,2 l/m 0 min 2 min 49 W/m 18,0 km/h (3 Bft) 96,30 %
08.12.2017 13:46 1,2 C 0,6 C 0,0 C 94 % 15 lf 1008,5 hPa 0,0 l/m 0 min 2 min 45 W/m 13,5 km/h (3 Bft) 93,62 %
08.12.2017 13:48 1,2 C 0,6 C 0,0 C 94 % 15 lf 1008,5 hPa 0,0 l/m 0 min 2 min 37 W/m 18,0 km/h (3 Bft) 95,74 %
08.12.2017 13:50 1,2 C 1,1 C 0,0 C 94 % 15 lf 1008,5 hPa 0,0 l/m 0 min 2 min 35 W/m 29,3 km/h (5 Bft) 95,74 %
08.12.2017 13:52 1,2 C 1,1 C 0,0 C 94 % 15 lf 1008,6 hPa 0,0 l/m 0 min 2 min 28 W/m 18,0 km/h (3 Bft) 95,74 %
08.12.2017 13:54 1,2 C 0,6 C 0,0 C 94 % 15 lf 1008,6 hPa 0,0 l/m 0 min 2 min 19 W/m 15,8 km/h (3 Bft) 97,87 %
08.12.2017 13:56 1,2 C 0,6 C 0,0 C 95 % 15 lf 1008,6 hPa 0,2 l/m 0 min 2 min 12 W/m 24,8 km/h (4 Bft) 97,96 %
08.12.2017 13:58 1,1 C 0,6 C 0,0 C 95 % 15 lf 1008,7 hPa 0,0 l/m 0 min 2 min 11 W/m 20,3 km/h (4 Bft) 97,92 %
08.12.2017 14:00 1,1 C 0,6 C -0,6 C 95 % 15 lf 1008,6 hPa 0,0 l/m 0 min 2 min 11 W/m 18,0 km/h (3 Bft) 97,22 %
08.12.2017 14:02 1,1 C 0,6 C -0,6 C 94 % 15 lf 1008,7 hPa 0,0 l/m 0 min 2 min 12 W/m 13,5 km/h (3 Bft) 97,83 %
08.12.2017 14:04 1,0 C 0,6 C -1,1 C 94 % 15 lf 1008,6 hPa 0,0 l/m 0 min 2 min 17 W/m 9,0 km/h (2 Bft) 97,87 %
08.12.2017 14:06 0,9 C 0,6 C -1,1 C 94 % 15 lf 1008,6 hPa 0,0 l/m 0 min 2 min 18 W/m 11,3 km/h (2 Bft) 98,18 %
08.12.2017 14:08 0,9 C 0,6 C -1,1 C 95 % 15 lf 1008,6 hPa 0,0 l/m 0 min 2 min 19 W/m 11,3 km/h (2 Bft) 95,92 %
08.12.2017 14:10 0,9 C 0,6 C -0,6 C 95 % 15 lf 1008,7 hPa 0,0 l/m 0 min 2 min 25 W/m 9,0 km/h (2 Bft) 95,83 %
08.12.2017 14:12 0,9 C 0,6 C -0,6 C 95 % 15 lf 1008,6 hPa 0,0 l/m 0 min 2 min 35 W/m 9,0 km/h (2 Bft) 97,22 %
08.12.2017 14:14 0,8 C 0,6 C -0,6 C 95 % 15 lf 1008,5 hPa 0,0 l/m 0 min 2 min 44 W/m 9,0 km/h (2 Bft) 97,83 %
08.12.2017 14:16 0,8 C 0,6 C -0,6 C 95 % 15 lf 1008,6 hPa 0,0 l/m 0 min 2 min 49 W/m 9,0 km/h (2 Bft) 97,92 %
08.12.2017 14:18 0,8 C 0,6 C 0,0 C 95 % 15 lf 1008,6 hPa 0,0 l/m 0 min 2 min 49 W/m 6,8 km/h (2 Bft) 97,87 %
08.12.2017 14:20 0,8 C 0,6 C 0,0 C 95 % 15 lf 1008,6 hPa 0,0 l/m 0 min 0 min 36 W/m 18,0 km/h (3 Bft) 98,11 %
08.12.2017 14:22 0,8 C 0,6 C 0,0 C 95 % 15 lf 1008,6 hPa 0,0 l/m 0 min 2 min 34 W/m 15,8 km/h (3 Bft) 94,00 %
08.12.2017 14:24 0,8 C 0,6 C 0,0 C 95 % 15 lf 1008,6 hPa 0,2 l/m 0 min 2 min 28 W/m 13,5 km/h (3 Bft) 95,74 %
08.12.2017 14:26 0,8 C 0,6 C 0,0 C 95 % 15 lf 1008,7 hPa 0,0 l/m 0 min 0 min 26 W/m 11,3 km/h (2 Bft) 97,87 %
08.12.2017 14:28 0,8 C 0,6 C 0,0 C 95 % 15 lf 1008,7 hPa 0,0 l/m 0 min 0 min 26 W/m 11,3 km/h (2 Bft) 97,87 %
08.12.2017 14:30 0,8 C 0,6 C 0,0 C 95 % 15 lf 1008,7 hPa 0,0 l/m 0 min 0 min 24 W/m 11,3 km/h (2 Bft) 95,74 %
08.12.2017 14:32 0,8 C 0,6 C 0,0 C 95 % 15 lf 1008,6 hPa 0,0 l/m 0 min 2 min 22 W/m 11,3 km/h (2 Bft) 86,96 %
08.12.2017 14:34 0,8 C 0,6 C -0,6 C 95 % 15 lf 1008,7 hPa 0,0 l/m 0 min 2 min 26 W/m 11,3 km/h (2 Bft) 95,92 %
08.12.2017 14:36 0,9 C 0,6 C -0,6 C 95 % 15 lf 1008,6 hPa 0,0 l/m 0 min 2 min 44 W/m 11,3 km/h (2 Bft) 95,74 %
08.12.2017 14:38 0,9 C 0,6 C -0,6 C 95 % 15 lf 1008,6 hPa 0,0 l/m 0 min 2 min 51 W/m 13,5 km/h (3 Bft) 100,00 %
08.12.2017 14:40 0,9 C 0,6 C 0,0 C 95 % 15 lf 1008,7 hPa 0,0 l/m 0 min 2 min 43 W/m 6,8 km/h (2 Bft) 97,87 %
08.12.2017 14:42 0,9 C 0,6 C 0,0 C 95 % 15 lf 1008,6 hPa 0,0 l/m 0 min 2 min 39 W/m 15,8 km/h (3 Bft) 93,62 %
08.12.2017 14:44 0,9 C 0,6 C -0,6 C 95 % 15 lf 1008,3 hPa 0,0 l/m 0 min 2 min 53 W/m 20,3 km/h (4 Bft) 95,74 %
08.12.2017 14:46 0,9 C 0,6 C -0,6 C 95 % 15 lf 1008,3 hPa 0,0 l/m 0 min 2 min 76 W/m 18,0 km/h (3 Bft) 96,23 %
08.12.2017 14:48 0,9 C 1,1 C -0,6 C 95 % 15 lf 1008,3 hPa 0,0 l/m 0 min 2 min 84 W/m 18,0 km/h (3 Bft) 92,00 %
08.12.2017 14:50 0,9 C 1,1 C 0,0 C 95 % 15 lf 1008,4 hPa 0,0 l/m 0 min 0 min 86 W/m 15,8 km/h (3 Bft) 95,92 %
08.12.2017 14:52 0,9 C 1,1 C 0,0 C 95 % 15 lf 1008,4 hPa 0,0 l/m 0 min 0 min 89 W/m 15,8 km/h (3 Bft) 95,74 %
08.12.2017 14:54 0,9 C 1,1 C 0,0 C 95 % 15 lf 1008,5 hPa 0,2 l/m 0 min 0 min 84 W/m 20,3 km/h (4 Bft) 97,87 %
08.12.2017 14:56 0,9 C 1,1 C 0,0 C 95 % 15 lf 1008,5 hPa 0,0 l/m 0 min 0 min 85 W/m 13,5 km/h (3 Bft) 97,83 %
08.12.2017 14:58 1,0 C 1,1 C 0,0 C 95 % 15 lf 1008,5 hPa 0,0 l/m 0 min 0 min 83 W/m 18,0 km/h (3 Bft) 94,44 %
08.12.2017 15:00 1,0 C 1,1 C 0,0 C 96 % 15 lf 1008,5 hPa 0,0 l/m 0 min 0 min 78 W/m 13,5 km/h (3 Bft) 95,65 %
08.12.2017 15:02 1,0 C 1,1 C 0,0 C 96 % 15 lf 1008,4 hPa 0,0 l/m 2 min 0 min 83 W/m 18,0 km/h (3 Bft) 95,74 %
08.12.2017 15:04 1,1 C 1,1 C 0,0 C 96 % 15 lf 1008,5 hPa 0,0 l/m 2 min 0 min 84 W/m 18,0 km/h (3 Bft) 96,30 %
08.12.2017 15:06 1,1 C 1,1 C 0,0 C 96 % 15 lf 1008,6 hPa 0,0 l/m 0 min 0 min 78 W/m 15,8 km/h (3 Bft) 95,92 %
08.12.2017 15:08 1,1 C 1,7 C 0,0 C 96 % 15 lf 1008,6 hPa 0,0 l/m 2 min 0 min 80 W/m 15,8 km/h (3 Bft) 93,88 %
08.12.2017 15:10 1,1 C 1,1 C 0,0 C 96 % 15 lf 1008,6 hPa 0,0 l/m 0 min 0 min 61 W/m 15,8 km/h (3 Bft) 94,29 %
08.12.2017 15:12 1,1 C 1,1 C 0,0 C 96 % 15 lf 1008,5 hPa 0,0 l/m 0 min 0 min 50 W/m 15,8 km/h (3 Bft) 93,62 %
08.12.2017 15:14 1,1 C 1,1 C 0,0 C 96 % 15 lf 1008,5 hPa 0,0 l/m 0 min 0 min 48 W/m 13,5 km/h (3 Bft) 95,74 %
08.12.2017 15:16 1,2 C 1,1 C 0,0 C 96 % 15 lf 1008,5 hPa 0,0 l/m 0 min 2 min 54 W/m 13,5 km/h (3 Bft) 96,30 %
08.12.2017 15:18 1,2 C 1,1 C 0,0 C 96 % 15 lf 1008,6 hPa 0,0 l/m 0 min 0 min 55 W/m 15,8 km/h (3 Bft) 93,88 %
08.12.2017 15:20 1,2 C 1,1 C 0,0 C 96 % 15 lf 1008,6 hPa 0,0 l/m 0 min 0 min 62 W/m 18,0 km/h (3 Bft) 97,96 %
08.12.2017 15:22 1,2 C 1,1 C 0,6 C 96 % 15 lf 1008,6 hPa 0,0 l/m 0 min 0 min 61 W/m 13,5 km/h (3 Bft) 97,87 %
08.12.2017 15:24 1,2 C 1,1 C 0,6 C 96 % 15 lf 1008,6 hPa 0,0 l/m 0 min 0 min 57 W/m 13,5 km/h (3 Bft) 97,87 %
08.12.2017 15:26 1,2 C 1,7 C 0,6 C 96 % 15 lf 1008,6 hPa 0,0 l/m 0 min 0 min 54 W/m 9,0 km/h (2 Bft) 95,74 %
08.12.2017 15:28 1,2 C 1,7 C 0,6 C 96 % 15 lf 1008,5 hPa 0,0 l/m 0 min 2 min 52 W/m 11,3 km/h (2 Bft) 95,74 %
08.12.2017 15:30 1,2 C 1,7 C 0,6 C 96 % 15 lf 1008,6 hPa 0,0 l/m 0 min 0 min 50 W/m 11,3 km/h (2 Bft) 95,65 %
08.12.2017 15:32 1,2 C 1,7 C 0,6 C 96 % 15 lf 1008,5 hPa 0,0 l/m 0 min 0 min 45 W/m 6,8 km/h (2 Bft) 88,89 %
08.12.2017 15:34 1,3 C 1,7 C 0,6 C 96 % 15 lf 1008,5 hPa 0,0 l/m 0 min 0 min 44 W/m 9,0 km/h (2 Bft) 96,23 %
08.12.2017 15:36 1,3 C 1,1 C 0,0 C 96 % 15 lf 1008,6 hPa 0,0 l/m 0 min 0 min 42 W/m 11,3 km/h (2 Bft) 97,87 %
08.12.2017 15:38 1,3 C 1,1 C 0,0 C 96 % 15 lf 1008,5 hPa 0,0 l/m 0 min 0 min 39 W/m 11,3 km/h (2 Bft) 95,74 %
08.12.2017 15:40 1,3 C 1,1 C 0,0 C 96 % 15 lf 1008,6 hPa 0,0 l/m 0 min 0 min 37 W/m 13,5 km/h (3 Bft) 93,88 %
08.12.2017 15:42 1,3 C 1,1 C 0,0 C 96 % 15 lf 1008,6 hPa 0,2 l/m 0 min 0 min 39 W/m 15,8 km/h (3 Bft) 95,92 %
08.12.2017 15:44 1,3 C 1,1 C 0,0 C 96 % 15 lf 1008,6 hPa 0,0 l/m 0 min 0 min 37 W/m 13,5 km/h (3 Bft) 93,62 %
08.12.2017 15:46 1,4 C 1,1 C 0,0 C 96 % 15 lf 1008,6 hPa 0,0 l/m 0 min 0 min 37 W/m 11,3 km/h (2 Bft) 91,49 %
08.12.2017 15:48 1,4 C 1,1 C 0,0 C 96 % 15 lf 1008,6 hPa 0,0 l/m 0 min 0 min 33 W/m 13,5 km/h (3 Bft) 95,74 %
08.12.2017 15:50 1,4 C 1,1 C 0,0 C 96 % 15 lf 1008,6 hPa 0,0 l/m 0 min 0 min 29 W/m 15,8 km/h (3 Bft) 97,14 %
08.12.2017 15:52 1,4 C 1,1 C 0,0 C 96 % 15 lf 1008,6 hPa 0,0 l/m 0 min 0 min 25 W/m 15,8 km/h (3 Bft) 95,74 %
08.12.2017 15:54 1,4 C 1,1 C 0,0 C 96 % 15 lf 1008,6 hPa 0,0 l/m 0 min 0 min 21 W/m 11,3 km/h (2 Bft) 95,74 %
08.12.2017 15:56 1,4 C 1,1 C 0,0 C 96 % 15 lf 1008,6 hPa 0,0 l/m 0 min 0 min 19 W/m 13,5 km/h (3 Bft) 95,74 %
08.12.2017 15:58 1,4 C 1,1 C 0,0 C 96 % 15 lf 1008,7 hPa 0,0 l/m 0 min 2 min 16 W/m 22,5 km/h (4 Bft) 95,65 %
08.12.2017 16:00 1,4 C 1,1 C 0,0 C 96 % 15 lf 1008,7 hPa 0,0 l/m 0 min 0 min 12 W/m 20,3 km/h (4 Bft) 98,15 %
08.12.2017 16:02 1,4 C 1,1 C 0,0 C 96 % 15 lf 1008,7 hPa 0,0 l/m 0 min 0 min 11 W/m 20,3 km/h (4 Bft) 97,87 %
08.12.2017 16:04 1,4 C 1,1 C 0,6 C 96 % 15 lf 1008,8 hPa 0,0 l/m 0 min 0 min 11 W/m 20,3 km/h (4 Bft) 97,83 %
08.12.2017 16:06 1,5 C 1,1 C 0,6 C 96 % 15 lf 1008,7 hPa 0,0 l/m 0 min 0 min 9 W/m 18,0 km/h (3 Bft) 96,00 %
08.12.2017 16:08 1,5 C 1,1 C 0,6 C 96 % 15 lf 1008,8 hPa 0,0 l/m 0 min 0 min 8 W/m 15,8 km/h (3 Bft) 95,74 %
08.12.2017 16:10 1,5 C 1,1 C 0,6 C 96 % 15 lf 1008,9 hPa 0,0 l/m 0 min 0 min 6 W/m 13,5 km/h (3 Bft) 97,96 %
08.12.2017 16:12 1,6 C 1,7 C 0,6 C 96 % 15 lf 1009,2 hPa 0,0 l/m 0 min 2 min 1 W/m 22,5 km/h (4 Bft) 97,14 %
08.12.2017 16:14 1,6 C 1,7 C 0,6 C 96 % 15 lf 1009,2 hPa 0,0 l/m 0 min 2 min 0 W/m 27,0 km/h (4 Bft) 95,74 %
08.12.2017 16:16 1,6 C 1,7 C 0,6 C 96 % 15 lf 1009,2 hPa 0,0 l/m 0 min 2 min 0 W/m 18,0 km/h (3 Bft) 97,87 %
08.12.2017 16:18 1,6 C 1,7 C 0,6 C 96 % 15 lf 1009,2 hPa 0,0 l/m 0 min 2 min 0 W/m 15,8 km/h (3 Bft) 98,11 %
08.12.2017 16:20 1,6 C 1,7 C 0,6 C 96 % 15 lf 1009,2 hPa 0,0 l/m 0 min 0 min 0 W/m 20,3 km/h (4 Bft) 95,74 %
08.12.2017 16:22 1,7 C 1,7 C 0,6 C 96 % 15 lf 1009,3 hPa 0,0 l/m 0 min 0 min 0 W/m 22,5 km/h (4 Bft) 97,87 %
08.12.2017 16:24 1,7 C 1,7 C 0,6 C 96 % 15 lf 1009,3 hPa 0,0 l/m 0 min 0 min 0 W/m 18,0 km/h (3 Bft) 97,87 %
08.12.2017 16:26 1,7 C 1,7 C 0,6 C 96 % 15 lf 1009,4 hPa 0,0 l/m 0 min 0 min 0 W/m 15,8 km/h (3 Bft) 100,00 %
08.12.2017 16:28 1,7 C 1,7 C 0,6 C 96 % 15 lf 1009,3 hPa 0,0 l/m 0 min 0 min 0 W/m 20,3 km/h (4 Bft) 97,96 %
08.12.2017 16:30 1,7 C 1,7 C 0,6 C 96 % 15 lf 1009,3 hPa 0,0 l/m 0 min 0 min 0 W/m 20,3 km/h (4 Bft) 100,00 %
08.12.2017 16:32 1,7 C 1,7 C 0,6 C 96 % 15 lf 1009,4 hPa 0,0 l/m 0 min 0 min 0 W/m 20,3 km/h (4 Bft) 98,11 %
08.12.2017 16:34 1,7 C 1,7 C 0,6 C 96 % 15 lf 1009,5 hPa 0,0 l/m 0 min 0 min 0 W/m 27,0 km/h (4 Bft) 98,00 %
08.12.2017 16:36 1,7 C 1,7 C 0,6 C 97 % 15 lf 1009,7 hPa 0,0 l/m 0 min 2 min 0 W/m 29,3 km/h (5 Bft) 97,96 %
08.12.2017 16:38 1,7 C 1,1 C 0,0 C 96 % 15 lf 1009,7 hPa 0,0 l/m 0 min 2 min 0 W/m 36,0 km/h (5 Bft) 97,14 %
08.12.2017 16:40 1,7 C 1,1 C -0,6 C 96 % 15 lf 1009,7 hPa 0,0 l/m 0 min 2 min 0 W/m 38,3 km/h (5 Bft) 96,23 %
08.12.2017 16:42 1,6 C 0,6 C -0,6 C 96 % 15 lf 1009,7 hPa 0,0 l/m 0 min 2 min 0 W/m 31,5 km/h (5 Bft) 95,74 %
08.12.2017 16:44 1,4 C 0,6 C -0,6 C 96 % 15 lf 1009,7 hPa 0,0 l/m 0 min 2 min 0 W/m 27,0 km/h (4 Bft) 98,00 %
08.12.2017 16:46 1,3 C 0,6 C -1,1 C 96 % 15 lf 1009,7 hPa 0,0 l/m 0 min 2 min 0 W/m 24,8 km/h (4 Bft) 94,59 %
08.12.2017 16:48 1,2 C 0,6 C -1,1 C 96 % 15 lf 1009,6 hPa 0,0 l/m 0 min 2 min 0 W/m 24,8 km/h (4 Bft) 100,00 %
08.12.2017 16:50 1,2 C 0,6 C -0,6 C 96 % 15 lf 1009,7 hPa 0,0 l/m 0 min 2 min 0 W/m 31,5 km/h (5 Bft) 95,74 %
08.12.2017 16:52 1,1 C 0,6 C -1,1 C 96 % 15 lf 1009,6 hPa 0,0 l/m 0 min 0 min 0 W/m 20,3 km/h (4 Bft) 95,74 %
08.12.2017 16:54 1,0 C 0,0 C -1,1 C 96 % 15 lf 1009,6 hPa 0,0 l/m 0 min 2 min 0 W/m 18,0 km/h (3 Bft) 95,74 %
08.12.2017 16:56 0,9 C 0,0 C -1,1 C 96 % 15 lf 1009,4 hPa 0,0 l/m 0 min 2 min 0 W/m 13,5 km/h (3 Bft) 94,44 %
08.12.2017 16:58 0,9 C 0,0 C -1,1 C 96 % 15 lf 1009,5 hPa 0,0 l/m 0 min 2 min 0 W/m 13,5 km/h (3 Bft) 93,62 %
08.12.2017 17:00 0,8 C 0,0 C -1,1 C 96 % 15 lf 1009,5 hPa 0,0 l/m 0 min 0 min 0 W/m 18,0 km/h (3 Bft) 96,00 %
08.12.2017 17:02 0,8 C 0,0 C -1,1 C 96 % 15 lf 1009,6 hPa 0,0 l/m 0 min 0 min 0 W/m 20,3 km/h (4 Bft) 100,00 %
08.12.2017 17:04 0,8 C 0,0 C -1,1 C 96 % 15 lf 1009,8 hPa 0,0 l/m 0 min 0 min 0 W/m 20,3 km/h (4 Bft) 94,83 %
08.12.2017 17:06 0,7 C 0,0 C -0,6 C 96 % 15 lf 1009,8 hPa 0,0 l/m 0 min 0 min 0 W/m 20,3 km/h (4 Bft) 97,87 %
08.12.2017 17:08 0,7 C 0,0 C -0,6 C 96 % 15 lf 1009,9 hPa 0,0 l/m 0 min 0 min 0 W/m 33,8 km/h (5 Bft) 97,87 %
08.12.2017 17:10 0,7 C 0,6 C -0,6 C 96 % 15 lf 1009,8 hPa 0,0 l/m 0 min 0 min 0 W/m 33,8 km/h (5 Bft) 100,00 %
08.12.2017 17:12 0,7 C 0,6 C -0,6 C 96 % 15 lf 1009,8 hPa 0,0 l/m 0 min 0 min 0 W/m 15,8 km/h (3 Bft) 98,31 %
08.12.2017 17:14 0,7 C 0,6 C -0,6 C 96 % 15 lf 1009,8 hPa 0,0 l/m 0 min 0 min 0 W/m 24,8 km/h (4 Bft) 100,00 %
08.12.2017 17:16 0,7 C 0,0 C -0,6 C 96 % 15 lf 1009,7 hPa 0,0 l/m 0 min 0 min 0 W/m 20,3 km/h (4 Bft) 100,00 %
08.12.2017 17:18 0,7 C 0,0 C -0,6 C 96 % 15 lf 1009,6 hPa 0,0 l/m 0 min 0 min 0 W/m 13,5 km/h (3 Bft) 98,11 %
08.12.2017 17:20 0,6 C 0,0 C -1,1 C 96 % 15 lf 1009,7 hPa 0,0 l/m 0 min 0 min 0 W/m 13,5 km/h (3 Bft) 100,00 %
08.12.2017 17:22 0,6 C 0,0 C -1,1 C 96 % 15 lf 1009,5 hPa 0,0 l/m 0 min 0 min 0 W/m 11,3 km/h (2 Bft) 100,00 %
08.12.2017 17:24 0,6 C -0,6 C -1,1 C 96 % 15 lf 1009,6 hPa 0,0 l/m 0 min 0 min 0 W/m 11,3 km/h (2 Bft) 100,00 %
08.12.2017 17:26 0,6 C -0,6 C -1,1 C 96 % 15 lf 1009,6 hPa 0,0 l/m 0 min 0 min 0 W/m 11,3 km/h (2 Bft) 97,83 %
08.12.2017 17:28 0,6 C -0,6 C -1,1 C 96 % 15 lf 1009,5 hPa 0,0 l/m 0 min 0 min 0 W/m 6,8 km/h (2 Bft) 97,87 %
08.12.2017 17:30 0,5 C -0,6 C -1,1 C 96 % 15 lf 1009,5 hPa 0,0 l/m 0 min 0 min 0 W/m 9,0 km/h (2 Bft) 100,00 %
08.12.2017 17:32 0,5 C -0,6 C -1,1 C 96 % 15 lf 1009,7 hPa 0,0 l/m 0 min 0 min 0 W/m 9,0 km/h (2 Bft) 100,00 %
08.12.2017 17:34 0,5 C -0,6 C -1,1 C 96 % 15 lf 1009,6 hPa 0,0 l/m 0 min 0 min 0 W/m 11,3 km/h (2 Bft) 100,00 %
08.12.2017 17:36 0,5 C -0,6 C -1,1 C 96 % 15 lf 1009,6 hPa 0,0 l/m 0 min 0 min 0 W/m 9,0 km/h (2 Bft) 97,87 %
08.12.2017 17:38 0,5 C -0,6 C -1,1 C 96 % 15 lf 1009,7 hPa 0,0 l/m 0 min 0 min 0 W/m 13,5 km/h (3 Bft) 100,00 %
08.12.2017 17:40 0,5 C -0,6 C -1,1 C 96 % 15 lf 1009,7 hPa 0,0 l/m 0 min 0 min 0 W/m 11,3 km/h (2 Bft) 100,00 %
08.12.2017 17:42 0,4 C -0,6 C -1,1 C 96 % 15 lf 1009,7 hPa 0,0 l/m 0 min 0 min 0 W/m 9,0 km/h (2 Bft) 100,00 %
08.12.2017 17:44 0,4 C -0,6 C -1,1 C 96 % 15 lf 1009,7 hPa 0,0 l/m 0 min 0 min 0 W/m 11,3 km/h (2 Bft) 97,87 %
08.12.2017 17:46 0,4 C -0,6 C -1,1 C 96 % 15 lf 1009,7 hPa 0,0 l/m 0 min 0 min 0 W/m 11,3 km/h (2 Bft) 100,00 %
08.12.2017 17:48 0,4 C -0,6 C -1,1 C 96 % 15 lf 1009,7 hPa 0,0 l/m 0 min 0 min 0 W/m 15,8 km/h (3 Bft) 100,00 %
08.12.2017 17:50 0,4 C -0,6 C -1,1 C 96 % 15 lf 1009,7 hPa 0,0 l/m 0 min 0 min 0 W/m 13,5 km/h (3 Bft) 100,00 %
08.12.2017 17:52 0,4 C -0,6 C -1,1 C 96 % 15 lf 1009,6 hPa 0,0 l/m 0 min 0 min 0 W/m 11,3 km/h (2 Bft) 95,74 %
08.12.2017 17:54 0,3 C -0,6 C -1,1 C 96 % 15 lf 1009,7 hPa 0,0 l/m 0 min 0 min 0 W/m 11,3 km/h (2 Bft) 97,87 %
08.12.2017 17:56 0,3 C -0,6 C -1,1 C 96 % 15 lf 1009,6 hPa 0,0 l/m 0 min 0 min 0 W/m 13,5 km/h (3 Bft) 97,87 %
08.12.2017 17:58 0,3 C -0,6 C -1,1 C 96 % 15 lf 1009,7 hPa 0,0 l/m 0 min 2 min 0 W/m 15,8 km/h (3 Bft) 97,87 %
08.12.2017 18:00 0,3 C -0,6 C -1,1 C 96 % 15 lf 1009,6 hPa 0,0 l/m 0 min 0 min 0 W/m 13,5 km/h (3 Bft) 93,88 %
08.12.2017 18:02 0,3 C -0,6 C -1,1 C 96 % 15 lf 1009,7 hPa 0,0 l/m 0 min 0 min 0 W/m 9,0 km/h (2 Bft) 95,65 %
08.12.2017 18:04 0,3 C -0,6 C -1,1 C 96 % 15 lf 1009,6 hPa 0,0 l/m 0 min 0 min 0 W/m 20,3 km/h (4 Bft) 91,49 %
08.12.2017 18:06 0,3 C -0,6 C -1,1 C 96 % 15 lf 1009,7 hPa 0,0 l/m 0 min 0 min 0 W/m 20,3 km/h (4 Bft) 95,74 %
08.12.2017 18:10 0,3 C 0,0 C -1,1 C 96 % 15 lf 1009,7 hPa 0,0 l/m 0 min 0 min 0 W/m 24,8 km/h (4 Bft) 95,12 %
08.12.2017 18:12 0,3 C 0,0 C -1,1 C 96 % 15 lf 1009,7 hPa 0,0 l/m 0 min 0 min 0 W/m 22,5 km/h (4 Bft) 91,49 %
08.12.2017 18:14 0,4 C 0,0 C -1,1 C 96 % 15 lf 1009,7 hPa 0,0 l/m 0 min 0 min 0 W/m 24,8 km/h (4 Bft) 95,74 %
08.12.2017 18:16 0,4 C 0,0 C -1,1 C 96 % 15 lf 1009,7 hPa 0,0 l/m 0 min 0 min 0 W/m 18,0 km/h (3 Bft) 91,49 %
08.12.2017 18:18 0,4 C 0,0 C -1,1 C 96 % 15 lf 1009,6 hPa 0,0 l/m 0 min 0 min 0 W/m 22,5 km/h (4 Bft) 91,30 %
08.12.2017 18:20 0,5 C 0,0 C -1,1 C 96 % 15 lf 1009,6 hPa 0,0 l/m 0 min 0 min 0 W/m 20,3 km/h (4 Bft) 93,22 %
08.12.2017 18:22 0,5 C 0,0 C -1,1 C 96 % 15 lf 1009,6 hPa 0,0 l/m 0 min 2 min 0 W/m 29,3 km/h (5 Bft) 88,57 %
08.12.2017 18:24 0,5 C 0,0 C -1,1 C 96 % 15 lf 1009,6 hPa 0,0 l/m 0 min 0 min 0 W/m 27,0 km/h (4 Bft) 91,49 %
08.12.2017 18:26 0,5 C 0,0 C -1,1 C 96 % 15 lf 1009,7 hPa 0,0 l/m 0 min 2 min 0 W/m 24,8 km/h (4 Bft) 89,36 %
08.12.2017 18:28 0,5 C 0,0 C -1,1 C 96 % 15 lf 1009,6 hPa 0,0 l/m 0 min 2 min 0 W/m 24,8 km/h (4 Bft) 89,13 %
08.12.2017 18:30 0,5 C 0,0 C -1,1 C 96 % 15 lf 1009,6 hPa 0,0 l/m 0 min 0 min 0 W/m 27,0 km/h (4 Bft) 91,49 %
08.12.2017 18:32 0,5 C 0,0 C -1,1 C 96 % 15 lf 1009,5 hPa 0,0 l/m 0 min 0 min 0 W/m 27,0 km/h (4 Bft) 91,49 %
08.12.2017 18:34 0,6 C 0,0 C -1,1 C 96 % 15 lf 1009,6 hPa 0,0 l/m 0 min 0 min 0 W/m 22,5 km/h (4 Bft) 89,36 %
08.12.2017 18:36 0,6 C 0,0 C -1,1 C 96 % 15 lf 1009,6 hPa 0,0 l/m 0 min 0 min 0 W/m 20,3 km/h (4 Bft) 91,49 %
08.12.2017 18:38 0,6 C 0,0 C -1,1 C 96 % 15 lf 1009,7 hPa 0,0 l/m 0 min 0 min 0 W/m 22,5 km/h (4 Bft) 91,49 %
08.12.2017 18:40 0,7 C 0,0 C -1,1 C 95 % 15 lf 1009,7 hPa 0,0 l/m 0 min 0 min 0 W/m 22,5 km/h (4 Bft) 84,78 %
08.12.2017 18:42 0,7 C 0,0 C -1,1 C 95 % 15 lf 1009,7 hPa 0,0 l/m 0 min 0 min 0 W/m 24,8 km/h (4 Bft) 91,49 %
08.12.2017 18:44 0,7 C 0,0 C -1,1 C 95 % 15 lf 1009,7 hPa 0,0 l/m 0 min 0 min 0 W/m 20,3 km/h (4 Bft) 87,23 %
08.12.2017 18:46 0,7 C 0,0 C -1,1 C 95 % 15 lf 1009,7 hPa 0,0 l/m 0 min 0 min 0 W/m 22,5 km/h (4 Bft) 93,62 %
08.12.2017 18:48 0,7 C 0,0 C -1,1 C 95 % 15 lf 1009,7 hPa 0,0 l/m 0 min 0 min 0 W/m 18,0 km/h (3 Bft) 91,49 %
08.12.2017 18:50 0,7 C 0,0 C -1,1 C 95 % 15 lf 1009,7 hPa 0,0 l/m 0 min 0 min 0 W/m 15,8 km/h (3 Bft) 93,10 %
08.12.2017 18:52 0,7 C 0,0 C -1,1 C 95 % 15 lf 1009,7 hPa 0,0 l/m 0 min 0 min 0 W/m 18,0 km/h (3 Bft) 94,29 %
08.12.2017 18:54 0,7 C 0,0 C -1,1 C 95 % 15 lf 1009,7 hPa 0,0 l/m 0 min 0 min 0 W/m 18,0 km/h (3 Bft) 93,62 %
08.12.2017 18:56 0,7 C 0,0 C -1,1 C 95 % 15 lf 1009,7 hPa 0,0 l/m 0 min 0 min 0 W/m 15,8 km/h (3 Bft) 87,23 %
08.12.2017 18:58 0,7 C 0,0 C -1,1 C 95 % 15 lf 1009,7 hPa 0,0 l/m 0 min 0 min 0 W/m 20,3 km/h (4 Bft) 91,49 %
08.12.2017 19:00 0,7 C 0,0 C -1,1 C 94 % 15 lf 1009,7 hPa 0,0 l/m 0 min 0 min 0 W/m 22,5 km/h (4 Bft) 89,36 %
08.12.2017 19:02 0,7 C 0,0 C -1,1 C 94 % 15 lf 1009,7 hPa 0,0 l/m 0 min 0 min 0 W/m 27,0 km/h (4 Bft) 97,87 %
08.12.2017 19:04 0,7 C 0,0 C -1,1 C 94 % 15 lf 1009,7 hPa 0,0 l/m 0 min 0 min 0 W/m 22,5 km/h (4 Bft) 100,00 %
08.12.2017 19:06 0,7 C 0,0 C -1,1 C 94 % 15 lf 1009,7 hPa 0,0 l/m 0 min 0 min 0 W/m 20,3 km/h (4 Bft) 95,74 %
08.12.2017 19:08 0,7 C 0,0 C -1,1 C 94 % 15 lf 1009,8 hPa 0,0 l/m 0 min 0 min 0 W/m 18,0 km/h (3 Bft) 93,62 %
08.12.2017 19:10 0,7 C 0,0 C -1,1 C 94 % 15 lf 1009,7 hPa 0,0 l/m 0 min 0 min 0 W/m 24,8 km/h (4 Bft) 97,87 %
08.12.2017 19:12 0,8 C 0,0 C -1,1 C 94 % 15 lf 1009,7 hPa 0,0 l/m 0 min 0 min 0 W/m 36,0 km/h (5 Bft) 100,00 %
08.12.2017 19:14 0,8 C 0,0 C -0,6 C 94 % 15 lf 1009,7 hPa 0,0 l/m 0 min 0 min 0 W/m 27,0 km/h (4 Bft) 95,74 %
08.12.2017 19:16 0,8 C 0,6 C -0,6 C 94 % 15 lf 1009,7 hPa 0,0 l/m 0 min 0 min 0 W/m 24,8 km/h (4 Bft) 97,83 %
08.12.2017 19:18 0,8 C 0,6 C -0,6 C 94 % 15 lf 1009,6 hPa 0,0 l/m 0 min 0 min 0 W/m 24,8 km/h (4 Bft) 100,00 %
08.12.2017 19:20 0,8 C 0,6 C -1,1 C 94 % 15 lf 1009,6 hPa 0,0 l/m 0 min 0 min 0 W/m 27,0 km/h (4 Bft) 98,31 %
08.12.2017 19:22 0,8 C 0,6 C -0,6 C 94 % 15 lf 1009,7 hPa 0,0 l/m 0 min 0 min 0 W/m 27,0 km/h (4 Bft) 97,14 %
08.12.2017 19:24 0,9 C 0,6 C -0,6 C 94 % 15 lf 1009,5 hPa 0,0 l/m 0 min 0 min 0 W/m 24,8 km/h (4 Bft) 100,00 %
08.12.2017 19:26 0,9 C 0,6 C -0,6 C 94 % 15 lf 1009,5 hPa 0,0 l/m 0 min 0 min 0 W/m 20,3 km/h (4 Bft) 98,36 %
08.12.2017 19:28 0,9 C 0,6 C -0,6 C 94 % 15 lf 1009,5 hPa 0,0 l/m 0 min 0 min 0 W/m 20,3 km/h (4 Bft) 100,00 %
08.12.2017 19:30 0,9 C 0,6 C -0,6 C 94 % 15 lf 1009,5 hPa 0,0 l/m 0 min 0 min 0 W/m 22,5 km/h (4 Bft) 100,00 %
08.12.2017 19:32 0,9 C 0,6 C -0,6 C 94 % 15 lf 1009,6 hPa 0,0 l/m 0 min 0 min 0 W/m 29,3 km/h (5 Bft) 100,00 %
08.12.2017 19:34 0,9 C 0,6 C -0,6 C 94 % 15 lf 1009,5 hPa 0,0 l/m 0 min 0 min 0 W/m 27,0 km/h (4 Bft) 100,00 %
08.12.2017 19:36 0,9 C 0,6 C -0,6 C 93 % 15 lf 1009,5 hPa 0,0 l/m 0 min 0 min 0 W/m 24,8 km/h (4 Bft) 97,96 %
08.12.2017 19:38 0,9 C 0,6 C -0,6 C 93 % 15 lf 1009,5 hPa 0,0 l/m 0 min 0 min 0 W/m 31,5 km/h (5 Bft) 100,00 %
08.12.2017 19:40 0,9 C 0,6 C -0,6 C 93 % 14 lf 1009,5 hPa 0,0 l/m 0 min 0 min 0 W/m 33,8 km/h (5 Bft) 100,00 %
08.12.2017 19:42 0,9 C 0,6 C -0,6 C 93 % 14 lf 1009,5 hPa 0,0 l/m 0 min 0 min 0 W/m 31,5 km/h (5 Bft) 100,00 %
08.12.2017 19:44 0,9 C 0,6 C -0,6 C 93 % 13 lf 1009,5 hPa 0,0 l/m 0 min 0 min 0 W/m 22,5 km/h (4 Bft) 97,87 %
08.12.2017 19:46 1,0 C 0,6 C -0,6 C 93 % 13 lf 1009,5 hPa 0,0 l/m 0 min 0 min 0 W/m 24,8 km/h (4 Bft) 95,74 %
08.12.2017 19:48 1,0 C 0,6 C -0,6 C 93 % 12 lf 1009,6 hPa 0,0 l/m 0 min 0 min 0 W/m 36,0 km/h (5 Bft) 100,00 %
08.12.2017 19:50 1,0 C 0,6 C -0,6 C 93 % 10 lf 1009,6 hPa 0,0 l/m 0 min 0 min 0 W/m 31,5 km/h (5 Bft) 100,00 %
08.12.2017 19:52 1,0 C 0,6 C -0,6 C 93 % 10 lf 1009,6 hPa 0,0 l/m 0 min 0 min 0 W/m 33,8 km/h (5 Bft) 97,14 %
08.12.2017 19:54 1,0 C 0,6 C -0,6 C 93 % 8 lf 1009,6 hPa 0,0 l/m 0 min 0 min 0 W/m 31,5 km/h (5 Bft) 100,00 %
08.12.2017 19:56 1,1 C 0,6 C -0,6 C 92 % 7 lf 1009,5 hPa 0,0 l/m 0 min 0 min 0 W/m 27,0 km/h (4 Bft) 97,87 %
08.12.2017 19:58 1,1 C 0,6 C -0,6 C 92 % 5 lf 1009,6 hPa 0,0 l/m 0 min 0 min 0 W/m 29,3 km/h (5 Bft) 97,87 %
08.12.2017 20:00 1,1 C 0,6 C -0,6 C 92 % 4 lf 1009,6 hPa 0,0 l/m 0 min 2 min 0 W/m 33,8 km/h (5 Bft) 97,87 %
08.12.2017 20:02 1,1 C 0,6 C -0,6 C 92 % 4 lf 1009,6 hPa 0,0 l/m 0 min 0 min 0 W/m 27,0 km/h (4 Bft) 97,83 %
08.12.2017 20:04 1,1 C 0,6 C -0,6 C 92 % 3 lf 1009,5 hPa 0,0 l/m 0 min 0 min 0 W/m 24,8 km/h (4 Bft) 97,87 %
08.12.2017 20:06 1,1 C 0,6 C -0,6 C 92 % 3 lf 1009,6 hPa 0,0 l/m 0 min 0 min 0 W/m 31,5 km/h (5 Bft) 100,00 %
08.12.2017 20:08 1,1 C 0,6 C -0,6 C 92 % 2 lf 1009,6 hPa 0,0 l/m 0 min 0 min 0 W/m 27,0 km/h (4 Bft) 97,87 %
08.12.2017 20:10 1,2 C 0,6 C -0,6 C 92 % 2 lf 1009,6 hPa 0,0 l/m 0 min 2 min 0 W/m 33,8 km/h (5 Bft) 100,00 %
08.12.2017 20:12 1,2 C 0,6 C -0,6 C 91 % 1 lf 1009,6 hPa 0,0 l/m 0 min 2 min 0 W/m 29,3 km/h (5 Bft) 95,74 %
08.12.2017 20:14 1,2 C 0,6 C -0,6 C 91 % 1 lf 1009,6 hPa 0,0 l/m 0 min 0 min 0 W/m 29,3 km/h (5 Bft) 100,00 %
08.12.2017 20:16 1,2 C 0,6 C -0,6 C 91 % 1 lf 1009,6 hPa 0,0 l/m 0 min 0 min 0 W/m 27,0 km/h (4 Bft) 95,74 %
08.12.2017 20:18 1,2 C 0,6 C -0,6 C 91 % 0 lf 1009,5 hPa 0,0 l/m 0 min 0 min 0 W/m 31,5 km/h (5 Bft) 97,87 %
08.12.2017 20:20 1,2 C 0,6 C -0,6 C 91 % 0 lf 1009,6 hPa 0,0 l/m 0 min 0 min 0 W/m 31,5 km/h (5 Bft) 98,28 %
08.12.2017 20:22 1,2 C 0,6 C -0,6 C 91 % 0 lf 1009,6 hPa 0,0 l/m 0 min 0 min 0 W/m 31,5 km/h (5 Bft) 97,22 %
08.12.2017 20:24 1,3 C 0,6 C -0,6 C 91 % 0 lf 1009,6 hPa 0,0 l/m 0 min 0 min 0 W/m 38,3 km/h (5 Bft) 93,48 %
08.12.2017 20:26 1,3 C 0,6 C -0,6 C 91 % 0 lf 1009,6 hPa 0,0 l/m 0 min 0 min 0 W/m 29,3 km/h (5 Bft) 93,62 %
08.12.2017 20:28 1,3 C 0,6 C -0,6 C 90 % 0 lf 1009,6 hPa 0,0 l/m 0 min 0 min 0 W/m 29,3 km/h (5 Bft) 100,00 %
08.12.2017 20:30 1,3 C 0,6 C -0,6 C 91 % 0 lf 1009,6 hPa 0,0 l/m 0 min 0 min 0 W/m 38,3 km/h (5 Bft) 95,89 %
08.12.2017 20:32 1,3 C 0,6 C -0,6 C 90 % 0 lf 1009,7 hPa 0,0 l/m 0 min 0 min 0 W/m 29,3 km/h (5 Bft) 94,34 %
08.12.2017 20:34 1,3 C 0,6 C -0,6 C 90 % 0 lf 1009,7 hPa 0,0 l/m 0 min 0 min 0 W/m 29,3 km/h (5 Bft) 97,83 %
08.12.2017 20:36 1,3 C 1,1 C -0,6 C 90 % 0 lf 1009,6 hPa 0,0 l/m 0 min 0 min 0 W/m 27,0 km/h (4 Bft) 97,87 %
08.12.2017 20:38 1,4 C 1,1 C -0,6 C 90 % 0 lf 1009,7 hPa 0,0 l/m 0 min 0 min 0 W/m 31,5 km/h (5 Bft) 93,62 %
08.12.2017 20:40 1,4 C 1,1 C -0,6 C 90 % 0 lf 1009,7 hPa 0,0 l/m 0 min 2 min 0 W/m 29,3 km/h (5 Bft) 95,74 %
08.12.2017 20:42 1,4 C 1,1 C -0,6 C 90 % 0 lf 1009,7 hPa 0,0 l/m 0 min 2 min 0 W/m 27,0 km/h (4 Bft) 95,74 %
08.12.2017 20:44 1,4 C 1,1 C -0,6 C 90 % 0 lf 1009,6 hPa 0,0 l/m 0 min 2 min 0 W/m 38,3 km/h (5 Bft) 100,00 %
08.12.2017 20:46 1,4 C 1,1 C -0,6 C 90 % 0 lf 1009,8 hPa 0,0 l/m 0 min 0 min 0 W/m 40,6 km/h (6 Bft) 100,00 %
08.12.2017 20:48 1,4 C 1,1 C -0,6 C 89 % 0 lf 1009,9 hPa 0,0 l/m 0 min 0 min 0 W/m 33,8 km/h (5 Bft) 93,62 %
08.12.2017 20:50 1,4 C 1,1 C 0,0 C 89 % 0 lf 1010,0 hPa 0,0 l/m 0 min 0 min 0 W/m 20,3 km/h (4 Bft) 95,74 %
08.12.2017 20:52 1,4 C 1,1 C -0,6 C 89 % 0 lf 1009,9 hPa 0,0 l/m 0 min 0 min 0 W/m 15,8 km/h (3 Bft) 95,74 %
08.12.2017 20:54 1,4 C 1,1 C -0,6 C 89 % 4 lf 1010,0 hPa 0,0 l/m 0 min 0 min 0 W/m 20,3 km/h (4 Bft) 95,74 %
08.12.2017 20:56 1,4 C 1,1 C -0,6 C 89 % 7 lf 1009,9 hPa 0,0 l/m 0 min 0 min 0 W/m 27,0 km/h (4 Bft) 91,30 %
08.12.2017 20:58 1,4 C 1,1 C -0,6 C 89 % 15 lf 1010,0 hPa 0,0 l/m 0 min 2 min 0 W/m 29,3 km/h (5 Bft) 93,62 %
08.12.2017 21:00 1,5 C 1,1 C -0,6 C 89 % 15 lf 1010,1 hPa 0,0 l/m 0 min 2 min 0 W/m 36,0 km/h (5 Bft) 95,74 %
08.12.2017 21:02 1,4 C 1,1 C -0,6 C 89 % 15 lf 1010,1 hPa 0,0 l/m 0 min 2 min 0 W/m 40,6 km/h (6 Bft) 91,49 %
08.12.2017 21:04 1,4 C 1,1 C -1,1 C 89 % 15 lf 1010,2 hPa 0,0 l/m 0 min 2 min 0 W/m 22,5 km/h (4 Bft) 93,62 %
08.12.2017 21:06 1,4 C 0,6 C -1,1 C 89 % 15 lf 1010,1 hPa 0,0 l/m 0 min 2 min 0 W/m 27,0 km/h (4 Bft) 94,74 %
08.12.2017 21:08 1,4 C 0,6 C -1,1 C 89 % 15 lf 1010,2 hPa 0,0 l/m 0 min 2 min 0 W/m 31,5 km/h (5 Bft) 95,74 %
08.12.2017 21:10 1,3 C 0,6 C -1,1 C 90 % 15 lf 1010,2 hPa 0,0 l/m 0 min 2 min 0 W/m 22,5 km/h (4 Bft) 95,65 %
08.12.2017 21:12 1,3 C 0,6 C -1,1 C 90 % 15 lf 1010,2 hPa 0,0 l/m 0 min 2 min 0 W/m 22,5 km/h (4 Bft) 85,11 %
08.12.2017 21:14 1,2 C 0,6 C -1,1 C 90 % 15 lf 1010,2 hPa 0,0 l/m 0 min 0 min 0 W/m 38,3 km/h (5 Bft) 95,74 %
08.12.2017 21:16 1,2 C 0,6 C -1,1 C 90 % 15 lf 1010,3 hPa 0,0 l/m 0 min 2 min 0 W/m 22,5 km/h (4 Bft) 93,62 %
08.12.2017 21:18 1,2 C 0,6 C -1,1 C 90 % 15 lf 1010,3 hPa 0,0 l/m 0 min 2 min 0 W/m 36,0 km/h (5 Bft) 95,74 %
08.12.2017 21:20 1,1 C 0,6 C -1,1 C 91 % 15 lf 1010,2 hPa 0,0 l/m 0 min 2 min 0 W/m 38,3 km/h (5 Bft) 93,62 %
08.12.2017 21:22 1,1 C 0,0 C -1,1 C 91 % 15 lf 1010,3 hPa 0,0 l/m 0 min 2 min 0 W/m 29,3 km/h (5 Bft) 95,65 %
08.12.2017 21:24 1,0 C 0,0 C -1,1 C 91 % 15 lf 1010,3 hPa 0,0 l/m 0 min 2 min 0 W/m 33,8 km/h (5 Bft) 91,49 %
08.12.2017 21:26 0,9 C 0,0 C -1,1 C 91 % 15 lf 1010,3 hPa 0,0 l/m 0 min 2 min 0 W/m 24,8 km/h (4 Bft) 93,62 %
08.12.2017 21:28 0,8 C 0,0 C -1,1 C 91 % 15 lf 1010,3 hPa 0,0 l/m 0 min 2 min 0 W/m 27,0 km/h (4 Bft) 93,62 %
08.12.2017 21:30 0,8 C 0,0 C -1,1 C 91 % 15 lf 1010,3 hPa 0,0 l/m 0 min 2 min 0 W/m 22,5 km/h (4 Bft) 91,49 %
08.12.2017 21:32 0,7 C 0,0 C -1,1 C 92 % 15 lf 1010,4 hPa 0,0 l/m 0 min 2 min 0 W/m 22,5 km/h (4 Bft) 97,87 %
08.12.2017 21:34 0,7 C 0,0 C -1,1 C 92 % 15 lf 1010,4 hPa 0,0 l/m 0 min 2 min 0 W/m 22,5 km/h (4 Bft) 97,83 %
08.12.2017 21:36 0,6 C 0,0 C -1,1 C 92 % 15 lf 1010,4 hPa 0,0 l/m 0 min 2 min 0 W/m 20,3 km/h (4 Bft) 93,62 %
08.12.2017 21:38 0,5 C 0,0 C -1,1 C 92 % 15 lf 1010,5 hPa 0,0 l/m 0 min 2 min 0 W/m 22,5 km/h (4 Bft) 97,87 %
08.12.2017 21:40 0,5 C 0,0 C -1,1 C 92 % 15 lf 1010,5 hPa 0,0 l/m 0 min 2 min 0 W/m 22,5 km/h (4 Bft) 95,74 %
08.12.2017 21:42 0,5 C 0,0 C -1,1 C 93 % 15 lf 1010,4 hPa 0,0 l/m 0 min 0 min 0 W/m 24,8 km/h (4 Bft) 89,36 %
08.12.2017 21:44 0,5 C 0,0 C -1,1 C 93 % 15 lf 1010,5 hPa 0,0 l/m 0 min 0 min 0 W/m 22,5 km/h (4 Bft) 97,87 %
08.12.2017 21:46 0,5 C 0,0 C -1,1 C 93 % 15 lf 1010,5 hPa 0,0 l/m 0 min 0 min 0 W/m 24,8 km/h (4 Bft) 91,30 %
08.12.2017 21:48 0,4 C 0,0 C -1,1 C 93 % 15 lf 1010,5 hPa 0,0 l/m 0 min 0 min 0 W/m 22,5 km/h (4 Bft) 97,87 %
08.12.2017 21:50 0,4 C 0,0 C -1,1 C 93 % 15 lf 1010,5 hPa 0,0 l/m 0 min 0 min 0 W/m 24,8 km/h (4 Bft) 97,92 %
08.12.2017 21:52 0,4 C 0,0 C -1,1 C 93 % 15 lf 1010,5 hPa 0,0 l/m 0 min 0 min 0 W/m 22,5 km/h (4 Bft) 97,92 %
08.12.2017 21:54 0,3 C 0,0 C -1,1 C 93 % 15 lf 1010,6 hPa 0,0 l/m 0 min 0 min 0 W/m 22,5 km/h (4 Bft) 97,87 %
08.12.2017 21:56 0,3 C 0,0 C -1,1 C 93 % 15 lf 1010,6 hPa 0,0 l/m 0 min 0 min 0 W/m 18,0 km/h (3 Bft) 97,83 %
08.12.2017 21:58 0,3 C 0,0 C -1,1 C 94 % 15 lf 1010,6 hPa 0,0 l/m 0 min 0 min 0 W/m 15,8 km/h (3 Bft) 100,00 %
08.12.2017 22:00 0,3 C 0,0 C -1,1 C 94 % 15 lf 1010,6 hPa 0,0 l/m 0 min 0 min 0 W/m 11,3 km/h (2 Bft) 95,74 %
08.12.2017 22:02 0,3 C 0,0 C -1,1 C 94 % 15 lf 1010,6 hPa 0,0 l/m 0 min 0 min 0 W/m 15,8 km/h (3 Bft) 98,15 %
08.12.2017 22:04 0,2 C 0,0 C -1,1 C 94 % 15 lf 1010,6 hPa 0,0 l/m 0 min 0 min 0 W/m 13,5 km/h (3 Bft) 97,87 %
08.12.2017 22:06 0,2 C 0,0 C -1,1 C 94 % 15 lf 1010,6 hPa 0,0 l/m 0 min 0 min 0 W/m 15,8 km/h (3 Bft) 91,30 %
08.12.2017 22:08 0,2 C 0,0 C -1,1 C 94 % 15 lf 1010,6 hPa 0,0 l/m 0 min 0 min 0 W/m 11,3 km/h (2 Bft) 97,87 %
08.12.2017 22:10 0,2 C 0,0 C -1,1 C 94 % 15 lf 1010,6 hPa 0,0 l/m 0 min 0 min 0 W/m 13,5 km/h (3 Bft) 95,74 %
08.12.2017 22:12 0,2 C 0,0 C -1,1 C 94 % 15 lf 1010,7 hPa 0,0 l/m 0 min 2 min 0 W/m 11,3 km/h (2 Bft) 93,62 %
08.12.2017 22:14 0,2 C 0,0 C -1,1 C 94 % 15 lf 1010,6 hPa 0,0 l/m 0 min 0 min 0 W/m 15,8 km/h (3 Bft) 93,62 %
08.12.2017 22:16 0,2 C 0,0 C -1,1 C 94 % 15 lf 1010,7 hPa 0,0 l/m 0 min 0 min 0 W/m 13,5 km/h (3 Bft) 91,49 %
08.12.2017 22:18 0,2 C 0,0 C -1,1 C 94 % 15 lf 1010,7 hPa 0,0 l/m 0 min 0 min 0 W/m 13,5 km/h (3 Bft) 95,65 %
08.12.2017 22:20 0,2 C 0,0 C -1,1 C 95 % 15 lf 1010,8 hPa 0,0 l/m 0 min 0 min 0 W/m 6,8 km/h (2 Bft) 95,74 %
08.12.2017 22:22 0,2 C 0,0 C -1,1 C 95 % 15 lf 1010,8 hPa 0,0 l/m 0 min 0 min 0 W/m 11,3 km/h (2 Bft) 95,74 %
08.12.2017 22:24 0,2 C 0,0 C -1,1 C 95 % 15 lf 1010,9 hPa 0,0 l/m 0 min 0 min 0 W/m 11,3 km/h (2 Bft) 91,49 %
08.12.2017 22:26 0,2 C 0,0 C -1,1 C 95 % 15 lf 1010,9 hPa 0,0 l/m 0 min 0 min 0 W/m 13,5 km/h (3 Bft) 95,74 %
08.12.2017 22:28 0,1 C 0,0 C -1,1 C 95 % 15 lf 1010,8 hPa 0,0 l/m 0 min 0 min 0 W/m 11,3 km/h (2 Bft) 95,74 %
08.12.2017 22:30 0,2 C 0,0 C -1,1 C 95 % 15 lf 1010,8 hPa 0,0 l/m 0 min 0 min 0 W/m 13,5 km/h (3 Bft) 95,65 %
08.12.2017 22:32 0,1 C 0,0 C -1,1 C 95 % 15 lf 1010,9 hPa 0,0 l/m 0 min 0 min 0 W/m 13,5 km/h (3 Bft) 93,62 %
08.12.2017 22:34 0,1 C 0,0 C -1,1 C 95 % 15 lf 1010,8 hPa 0,0 l/m 0 min 0 min 0 W/m 9,0 km/h (2 Bft) 95,74 %
08.12.2017 22:36 0,1 C 0,0 C -1,1 C 95 % 15 lf 1010,8 hPa 0,0 l/m 0 min 0 min 0 W/m 0,0 km/h (0 Bft) 95,74 %
08.12.2017 22:38 0,1 C 0,0 C -1,1 C 95 % 15 lf 1010,8 hPa 0,0 l/m 0 min 0 min 0 W/m 0,0 km/h (0 Bft) 97,87 %
08.12.2017 22:40 0,1 C 0,0 C -1,1 C 95 % 15 lf 1010,9 hPa 0,0 l/m 0 min 0 min 0 W/m 0,0 km/h (0 Bft) 97,87 %
08.12.2017 22:42 0,1 C 0,0 C -1,1 C 95 % 15 lf 1010,9 hPa 0,0 l/m 0 min 0 min 0 W/m 0,0 km/h (0 Bft) 94,74 %
08.12.2017 22:44 0,1 C 0,0 C -1,1 C 95 % 15 lf 1010,9 hPa 0,0 l/m 0 min 0 min 0 W/m 0,0 km/h (0 Bft) 97,83 %
08.12.2017 22:46 0,1 C 0,0 C -1,1 C 95 % 15 lf 1010,7 hPa 0,0 l/m 0 min 0 min 0 W/m 0,0 km/h (0 Bft) 95,74 %
08.12.2017 22:48 0,1 C 0,0 C -1,1 C 95 % 15 lf 1010,8 hPa 0,0 l/m 0 min 0 min 0 W/m 0,0 km/h (0 Bft) 95,74 %
08.12.2017 22:50 0,1 C 0,0 C -1,1 C 95 % 15 lf 1010,8 hPa 0,0 l/m 0 min 0 min 0 W/m 0,0 km/h (0 Bft) 97,87 %
08.12.2017 22:52 0,1 C 0,0 C -1,1 C 95 % 15 lf 1010,9 hPa 0,0 l/m 0 min 0 min 0 W/m 0,0 km/h (0 Bft) 95,74 %
08.12.2017 22:54 0,1 C 0,0 C -1,1 C 95 % 15 lf 1010,9 hPa 0,0 l/m 0 min 0 min 0 W/m 0,0 km/h (0 Bft) 97,87 %
08.12.2017 22:56 0,1 C 0,0 C -1,1 C 95 % 15 lf 1010,8 hPa 0,0 l/m 0 min 0 min 0 W/m 0,0 km/h (0 Bft) 93,88 %
08.12.2017 22:58 0,1 C 0,0 C -1,1 C 96 % 15 lf 1010,7 hPa 0,0 l/m 0 min 0 min 0 W/m 0,0 km/h (0 Bft) 95,74 %
08.12.2017 23:00 0,1 C 0,0 C -1,1 C 96 % 15 lf 1010,8 hPa 0,0 l/m 0 min 0 min 0 W/m 0,0 km/h (0 Bft) 97,87 %
08.12.2017 23:02 0,1 C 0,0 C -1,1 C 96 % 15 lf 1010,8 hPa 0,0 l/m 0 min 0 min 0 W/m 0,0 km/h (0 Bft) 97,87 %
08.12.2017 23:04 0,1 C 0,0 C -1,1 C 96 % 15 lf 1010,8 hPa 0,0 l/m 0 min 0 min 0 W/m 0,0 km/h (0 Bft) 96,00 %
08.12.2017 23:06 0,1 C 0,0 C -1,1 C 96 % 15 lf 1010,8 hPa 0,0 l/m 0 min 0 min 0 W/m 0,0 km/h (0 Bft) 97,83 %
08.12.2017 23:08 0,1 C 0,0 C -1,1 C 96 % 15 lf 1010,8 hPa 0,0 l/m 0 min 0 min 0 W/m 0,0 km/h (0 Bft) 93,62 %
08.12.2017 23:10 0,1 C 0,0 C -1,1 C 96 % 15 lf 1010,8 hPa 0,0 l/m 0 min 0 min 0 W/m 0,0 km/h (0 Bft) 93,62 %
08.12.2017 23:12 0,1 C 0,0 C -1,1 C 96 % 15 lf 1010,9 hPa 0,0 l/m 0 min 0 min 0 W/m 0,0 km/h (0 Bft) 95,45 %
08.12.2017 23:14 0,1 C 0,0 C -1,1 C 96 % 15 lf 1011,0 hPa 0,0 l/m 0 min 0 min 0 W/m 0,0 km/h (0 Bft) 100,00 %
08.12.2017 23:16 0,1 C 0,0 C -1,1 C 96 % 15 lf 1011,0 hPa 0,0 l/m 0 min 0 min 0 W/m 0,0 km/h (0 Bft) 100,00 %
08.12.2017 23:18 0,1 C 0,0 C -1,1 C 96 % 15 lf 1011,0 hPa 0,0 l/m 0 min 0 min 0 W/m 0,0 km/h (0 Bft) 100,00 %
08.12.2017 23:20 0,1 C 0,0 C -1,1 C 96 % 15 lf 1011,0 hPa 0,0 l/m 0 min 0 min 0 W/m 0,0 km/h (0 Bft) 100,00 %
08.12.2017 23:22 0,1 C 0,0 C -1,1 C 96 % 15 lf 1011,1 hPa 0,0 l/m 0 min 0 min 0 W/m 0,0 km/h (0 Bft) 97,87 %
08.12.2017 23:24 0,1 C 0,0 C -1,1 C 96 % 15 lf 1011,1 hPa 0,0 l/m 0 min 0 min 0 W/m 0,0 km/h (0 Bft) 95,74 %
08.12.2017 23:26 0,1 C 0,0 C -1,1 C 96 % 15 lf 1011,1 hPa 0,0 l/m 0 min 0 min 0 W/m 0,0 km/h (0 Bft) 95,74 %
08.12.2017 23:28 0,1 C 0,0 C -1,1 C 96 % 15 lf 1011,1 hPa 0,0 l/m 0 min 0 min 0 W/m 0,0 km/h (0 Bft) 97,87 %
08.12.2017 23:30 0,1 C 0,0 C -1,1 C 96 % 15 lf 1011,0 hPa 0,0 l/m 0 min 0 min 0 W/m 0,0 km/h (0 Bft) 95,65 %
08.12.2017 23:32 0,1 C 0,0 C -1,1 C 96 % 15 lf 1011,0 hPa 0,0 l/m 0 min 0 min 0 W/m 0,0 km/h (0 Bft) 96,00 %
08.12.2017 23:34 0,1 C 0,0 C -1,1 C 96 % 15 lf 1011,0 hPa 0,0 l/m 0 min 0 min 0 W/m 0,0 km/h (0 Bft) 100,00 %
08.12.2017 23:36 0,2 C 0,0 C -1,1 C 96 % 15 lf 1011,0 hPa 0,0 l/m 0 min 0 min 0 W/m 0,0 km/h (0 Bft) 100,00 %
08.12.2017 23:38 0,2 C 0,0 C -1,1 C 96 % 15 lf 1011,0 hPa 0,0 l/m 0 min 0 min 0 W/m 0,0 km/h (0 Bft) 96,36 %
08.12.2017 23:40 0,2 C 0,0 C -1,1 C 96 % 15 lf 1011,0 hPa 0,0 l/m 0 min 0 min 0 W/m 0,0 km/h (0 Bft) 97,96 %
08.12.2017 23:42 0,2 C 0,0 C -1,1 C 96 % 15 lf 1010,9 hPa 0,0 l/m 0 min 0 min 0 W/m 0,0 km/h (0 Bft) 94,59 %
08.12.2017 23:44 0,2 C 0,0 C -1,1 C 96 % 15 lf 1010,9 hPa 0,0 l/m 0 min 0 min 0 W/m 0,0 km/h (0 Bft) 97,92 %
08.12.2017 23:46 0,2 C 0,0 C -1,1 C 96 % 15 lf 1010,9 hPa 0,0 l/m 0 min 2 min 0 W/m 0,0 km/h (0 Bft) 93,75 %
08.12.2017 23:48 0,2 C 0,0 C -1,1 C 96 % 15 lf 1010,9 hPa 0,0 l/m 0 min 0 min 0 W/m 0,0 km/h (0 Bft) 98,18 %
08.12.2017 23:50 0,2 C 0,0 C -1,1 C 96 % 15 lf 1010,9 hPa 0,0 l/m 0 min 0 min 0 W/m 0,0 km/h (0 Bft) 93,88 %
08.12.2017 23:52 0,2 C 0,0 C -1,1 C 96 % 15 lf 1010,9 hPa 0,0 l/m 0 min 0 min 0 W/m 0,0 km/h (0 Bft) 94,44 %
08.12.2017 23:54 0,2 C 0,0 C -1,1 C 96 % 15 lf 1010,8 hPa 0,0 l/m 0 min 0 min 0 W/m 0,0 km/h (0 Bft) 93,48 %
08.12.2017 23:56 0,2 C 0,0 C -1,1 C 96 % 15 lf 1010,9 hPa 0,0 l/m 0 min 0 min 0 W/m 0,0 km/h (0 Bft) 92,00 %
08.12.2017 23:58 0,2 C 0,0 C -1,1 C 96 % 15 lf 1010,9 hPa 0,0 l/m 0 min 0 min 0 W/m 0,0 km/h (0 Bft) 93,88 %
_ Min-Zeit 22:28 17:24 13:36 20:48 03:24 00:04 - - - - 22:36 18:40
Minimum _ 0,1 C -0,6 C -1,1 C 89 % 0 lf 1006,6 hPa - - - - 0,0 km/h (0 Bft) 84,78 %
_ Max-Zeit 00:00 00:12 00:07 00:04 00:00 23:22 04:10 10:10 08:10 11:24 10:44 01:02
Maximum _ 5,8 C 5,6 C 4,4 C 97 % 15 lf 1011,1 hPa 0,2 l/m 4 min 4 min 266 W/m 60,8 km/h
W-SW (7 Bft)
100,00 %
Durchschnitt _ 2,3 C 2,0 C 0,8 C 94 % 12 lf 1008,4 hPa #2,8 l/m #54 min. #8:02 h 53 W/m 23,3 km/h (4 Bft) 96,26 %
© 2017 W. Hausmann